CW1648 Weather Reports


time (UTC)temp
C
wind
direction
speed
KPH
gust
KPH
rain 1hr
cm
rain 24hr
cm
rain mn
cm
humidity
%
barometer
mb
20260903174609 31 300 4.8 16.1 0.00 1.52 1.52 62 1011.2
20260903174520 31 323 9.7 12.9 0.00 1.52 1.52 63 1011.1
20260903174456 31 296 4.8 14.5 0.00 1.52 1.52 63 1011.2
20260903174338 31 248 4.8 14.5 0.00 1.52 1.52 64 1011.2
20260903174247 31 248 4.8 14.5 0.00 1.52 1.52 64 1011.2
20260903174220 31 248 4.8 14.5 0.00 1.52 1.52 64 1011.3
20260903174108 31 254 4.8 14.5 0.00 1.52 1.52 65 1011.4
20260903174103 31 246 4.8 14.5 0.00 1.52 1.52 66 1011.3
20260903174019 31 267 9.7 12.9 0.00 1.52 1.52 64 1011.3
20260903173836 31 261 4.8 14.5 0.00 1.52 1.52 65 1011.4
20260903173743 31 278 4.8 14.5 0.00 1.52 1.52 63 1011.4
20260903173642 31 273 4.8 12.9 0.00 1.52 1.52 62 1011.4
20260903173542 31 307 4.8 12.9 0.00 1.55 1.52 62 1011.4
20260903173534 31 265 4.8 12.9 0.00 1.55 1.52 62 1011.3
20260903173457 31 242 3.2 12.9 0.00 1.55 1.52 63 1011.4
20260903173453 31 292 3.2 12.9 0.00 1.55 1.52 64 1011.4
20260903173337 31 242 3.2 12.9 0.00 1.55 1.52 63 1011.4
20260903173242 31 246 4.8 12.9 0.00 1.55 1.52 64 1011.4
20260903173141 31 296 4.8 12.9 0.00 1.55 1.52 62 1011.4
20260903173132 31 232 4.8 16.1 0.00 1.55 1.52 65 1011.5
20260903173040 31 207 4.8 12.9 0.00 1.55 1.52 65 1011.5
20260903173029 31 233 4.8 16.1 0.00 1.55 1.52 64 1011.5
20260903173020 31 238 3.2 16.1 0.00 1.55 1.52 65 1011.4
20260903172802 31 223 4.8 16.1 0.00 1.55 1.52 65 1011.5
20260903172757 31 200 4.8 16.1 0.00 1.55 1.52 65 1011.5
20260903172519 31 221 3.2 16.1 0.00 1.55 1.52 65 1011.4
20260903172453 31 238 4.8 16.1 0.00 1.55 1.52 65 1011.5
20260903172449 31 324 4.8 16.1 0.00 1.55 1.52 64 1011.5
20260903172333 31 238 4.8 16.1 0.00 1.55 1.52 65 1011.5
20260903172237 31 270 4.8 16.1 0.00 1.55 1.52 65 1011.5
20260903172217 31 248 4.8 14.5 0.00 1.55 1.52 65 1011.5
20260903172212 31 263 4.8 16.1 0.00 1.55 1.52 64 1011.5
20260903172058 31 321 4.8 16.1 0.00 1.55 1.52 65 1011.6
20260903172019 31 248 3.2 14.5 0.00 1.55 1.52 64 1011.4
20260903171836 31 287 4.8 16.1 0.00 1.55 1.52 66 1011.6
20260903171734 31 240 4.8 16.1 0.00 1.55 1.52 66 1011.6
20260903171634 30 240 4.8 16.1 0.00 1.55 1.52 65 1011.7
20260903171533 30 258 4.8 16.1 0.00 1.55 1.52 64 1011.7
20260903171519 30 258 4.8 14.5 0.00 1.55 1.52 65 1011.6
20260903171433 30 242 4.8 16.1 0.00 1.55 1.52 65 1011.7
20260903171333 30 242 4.8 16.1 0.00 1.55 1.52 64 1011.7
20260903171231 30 237 4.8 16.1 0.00 1.55 1.52 64 1011.7
20260903171131 30 250 4.8 16.1 0.00 1.55 1.52 64 1011.7
20260903171030 30 294 3.2 16.1 0.00 1.55 1.52 65 1011.7
20260903171019 30 233 1.6 12.9 0.00 1.55 1.52 65 1011.6
20260903170930 30 233 3.2 16.1 0.00 1.55 1.52 65 1011.7
20260903170834 30 269 3.2 16.1 0.00 1.55 1.52 66 1011.7
20260903170829 30 264 3.2 16.1 0.00 1.55 1.52 65 1011.7
20260903170728 30 250 3.2 16.1 0.00 1.55 1.52 68 1011.7
20260903170628 30 254 3.2 16.1 0.00 1.55 1.52 67 1011.8
20260903170528 30 269 3.2 16.1 0.00 1.55 1.52 66 1011.8
20260903170519 30 231 4.8 12.9 0.00 1.55 1.52 68 1011.6
20260903170428 30 241 3.2 16.1 0.00 1.55 1.52 68 1011.7
20260903170327 30 233 4.8 16.1 0.00 1.55 1.52 67 1011.7
20260903170226 30 233 4.8 16.1 0.00 1.55 1.52 64 1011.7
20260903170125 30 213 4.8 16.1 0.00 1.55 1.52 66 1011.7
20260903170025 30 232 4.8 16.1 0.00 1.55 1.52 65 1011.6
20260903170020 30 232 3.2 12.9 0.00 1.55 1.52 65 1011.5
20260903165925 30 244 4.8 16.1 0.00 1.55 1.52 65 1011.6
20260903165826 30 246 4.8 12.9 0.00 1.55 1.52 65 1011.6
20260903165726 30 246 4.8 12.9 0.00 1.55 1.52 65 1011.6
20260903165625 30 246 4.8 12.9 0.00 1.55 1.52 64 1011.6
20260903165525 30 257 4.8 12.9 0.00 1.55 1.52 64 1011.7
20260903165519 30 261 3.2 12.9 0.00 1.55 1.52 64 1011.7
20260903165424 30 240 4.8 12.9 0.00 1.55 1.52 66 1011.8
20260903165352 30 222 4.8 12.9 0.00 1.55 1.52 66 1011.7
20260903165347 30 325 4.8 12.9 0.00 1.55 1.52 66 1011.7
20260903165233 30 284 3.2 12.9 0.00 1.55 1.52 67 1011.7
20260903165034 30 276 4.8 9.7 0.00 1.55 1.52 69 1011.7
20260903165023 30 252 1.6 12.9 0.00 1.55 1.52 69 1011.8
20260903164923 30 262 1.6 9.7 0.00 1.55 1.52 68 1011.8
20260903164822 30 263 1.6 9.7 0.00 1.55 1.52 70 1011.8
20260903164722 30 319 1.6 9.7 0.00 1.55 1.52 70 1011.9
20260903164643 30 227 0.0 8.0 0.00 1.55 1.52 72 1011.9
20260903164534 30 226 4.8 8.0 0.00 1.55 1.52 70 1011.8
20260903164529 30 227 0.0 8.0 0.00 1.55 1.52 70 1011.9
20260903164341 30 355 0.0 0.0 0.00 1.55 1.52 70 1011.9
20260903164228 30 221 0.0 0.0 0.00 1.55 1.52 70 1012.0
20260903164019 30 188 0.0 0.0 0.00 1.55 1.52 71 1012.0
20260903163918 30 177 0.0 0.0 0.00 1.55 1.52 72 1012.1
20260903163825 30 246 0.0 0.0 0.00 1.55 1.52 73 1012.1
20260903163817 29 247 0.0 0.0 0.00 1.55 1.52 73 1012.1
20260903163717 29 216 0.0 0.0 0.00 1.55 1.52 73 1012.0
20260903163617 29 202 0.0 0.0 0.00 1.55 1.52 73 1012.1
20260903163535 29 220 0.0 0.0 0.00 1.55 1.52 74 1011.9
20260903163517 29 220 0.0 0.0 0.00 1.55 1.52 74 1012.0
20260903163413 29 221 0.0 0.0 0.00 1.55 1.52 73 1012.0
20260903163313 29 221 0.0 0.0 0.00 1.55 1.52 72 1011.9
20260903163212 29 186 0.0 0.0 0.00 1.55 1.52 73 1012.0
20260903163112 28 186 0.0 0.0 0.00 1.55 1.52 73 1012.0
20260903163019 28 190 0.0 0.0 0.00 1.55 1.52 74 1011.8
20260903163012 28 190 0.0 0.0 0.00 1.55 1.52 74 1012.0
20260903162911 28 290 0.0 0.0 0.00 1.55 1.52 73 1011.9
20260903162810 28 182 0.0 0.0 0.00 1.55 1.52 73 1011.9
20260903162709 28 182 0.0 0.0 0.00 1.55 1.52 73 1011.9
20260903162607 28 269 0.0 0.0 0.00 1.55 1.52 73 1011.9
20260903162549 28 236 0.0 0.0 0.00 1.55 1.52 74 1011.7
20260903162506 28 205 0.0 0.0 0.00 1.55 1.52 74 1011.9
20260903162406 28 214 0.0 0.0 0.00 1.55 1.52 73 1011.8
20260903162324 28 262 0.0 0.0 0.00 1.55 1.52 73 1011.7
20260903162307 28 250 0.0 0.0 0.00 1.55 1.52 73 1011.7
20260903162206 28 198 0.0 0.0 0.00 1.55 1.52 74 1011.9
20260903162106 28 258 0.0 0.0 0.00 1.55 1.52 74 1011.7
20260903162034 28 297 0.0 0.0 0.00 1.55 1.52 73 1011.6
20260903162006 28 297 0.0 0.0 0.00 1.55 1.52 73 1011.7
20260903161906 28 215 0.0 0.0 0.00 1.55 1.52 74 1011.9
20260903161822 28 200 0.0 0.0 0.00 1.55 1.52 74 1011.9
20260903161805 28 199 0.0 0.0 0.00 1.55 1.52 74 1011.9
20260903161705 28 199 0.0 0.0 0.00 1.55 1.52 75 1011.7
20260903161605 28 256 0.0 0.0 0.00 1.55 1.52 75 1011.7
20260903161519 28 234 0.0 0.0 0.00 1.55 1.52 76 1011.6
20260903161504 28 240 0.0 0.0 0.00 1.55 1.52 76 1011.7
20260903161403 28 215 0.0 0.0 0.00 1.55 1.52 77 1011.7
20260903161323 28 215 0.0 0.0 0.00 1.55 1.52 77 1011.7
20260903161302 28 217 0.0 0.0 0.00 1.55 1.52 77 1011.7
20260903161202 28 215 0.0 0.0 0.00 1.55 1.52 77 1011.7
20260903161101 28 205 0.0 0.0 0.00 1.55 1.52 77 1011.8
20260903161020 28 205 0.0 0.0 0.00 1.55 1.52 77 1010.8
20260903161000 28 205 0.0 0.0 0.00 1.55 1.52 77 1010.9
20260903160900 28 205 0.0 0.0 0.00 1.55 1.52 76 1010.9
20260903160822 28 205 0.0 0.0 0.00 1.55 1.52 78 1010.9
20260903160812 28 228 0.0 0.0 0.00 1.55 1.52 78 1012.1
20260903160807 28 202 0.0 0.0 0.00 1.55 1.52 78 1011.1
20260903160557 28 229 0.0 0.0 0.00 1.55 1.52 77 1012.1
20260903160524 28 229 0.0 0.0 0.00 1.55 1.52 77 1012.1
20260903160520 28 229 0.0 0.0 0.00 1.55 1.52 77 1012.1
20260903160411 27 269 0.0 0.0 0.00 1.55 1.52 76 1012.1
20260903160402 27 243 0.0 0.0 0.00 1.55 1.52 77 1012.1
20260903160155 27 261 0.0 0.0 0.00 1.55 1.52 77 1010.1
20260903160055 27 317 0.0 0.0 0.00 1.55 1.52 77 1010.1
20260903160036 27 273 0.0 0.0 0.00 1.55 1.52 78 1011.8
20260903160019 27 213 0.0 0.0 0.00 1.55 1.52 77 1011.8
20260903155955 27 287 0.0 0.0 0.00 1.55 1.52 77 1011.8
20260903155927 27 257 0.0 0.0 0.00 1.55 1.52 78 1011.8
20260903155753 27 281 0.0 0.0 0.00 1.55 1.52 78 1011.8
20260903155652 27 237 0.0 0.0 0.00 1.55 1.52 79 1012.2
20260903155552 27 219 0.0 0.0 0.00 1.55 1.52 79 1011.8
20260903155519 27 9 0.0 0.0 0.00 1.55 1.52 79 1011.8
20260903155451 27 302 0.0 0.0 0.00 1.55 1.52 79 1011.8
20260903155350 27 212 0.0 0.0 0.00 1.55 1.52 79 1011.9
20260903155319 27 212 0.0 0.0 0.00 1.55 1.52 79 1011.9
20260903155250 27 212 0.0 0.0 0.00 1.55 1.52 79 1012.4
20260903155150 27 212 0.0 0.0 0.00 1.55 1.52 79 1012.5
20260903155127 27 207 0.0 0.0 0.00 1.55 1.52 79 1012.5
20260903155047 27 212 0.0 0.0 0.00 1.55 1.52 79 1012.5
20260903155023 27 209 0.0 0.0 0.00 1.55 1.52 78 1012.6
20260903155019 27 209 0.0 0.0 0.00 1.55 1.52 79 1012.6
20260903155014 27 209 0.0 0.0 0.00 1.55 1.52 79 1012.5
20260903154755 27 207 0.0 0.0 0.00 1.55 1.52 78 1012.3
20260903154546 27 143 0.0 0.0 0.00 1.55 1.52 77 1012.4
20260903154519 27 243 0.0 0.0 0.00 1.55 1.52 77 1012.6
20260903154446 27 264 0.0 0.0 0.00 1.55 1.52 77 1012.6
20260903154344 27 267 0.0 0.0 0.00 1.55 1.52 78 1012.5
20260903154316 27 236 0.0 0.0 0.00 1.55 1.52 78 1012.5
20260903154244 27 190 0.0 0.0 0.00 1.55 1.52 78 1012.3
20260903154143 27 190 0.0 0.0 0.00 1.55 1.52 78 1012.2
20260903154046 27 222 0.0 0.0 0.00 1.55 1.52 78 1012.3
20260903154039 27 262 0.0 0.0 0.00 1.55 1.52 78 1011.7
20260903154019 27 230 0.0 0.0 0.00 1.55 1.52 78 1012.4
20260903153943 27 306 0.0 0.0 0.00 1.55 1.52 78 1012.4
20260903153924 27 263 0.0 0.0 0.00 1.55 1.52 78 1011.7
20260903153756 27 255 0.0 0.0 0.00 1.55 1.52 78 1012.6
20260903153750 27 265 0.0 0.0 0.00 1.55 1.52 79 1012.3
20260903153605 27 209 0.0 0.0 0.00 1.55 1.52 79 1012.2
20260903153541 27 256 0.0 0.0 0.00 1.55 1.52 78 1012.3
20260903153534 27 241 0.0 0.0 0.00 1.55 1.52 79 1011.6
20260903153508 27 259 0.0 0.0 0.00 1.55 1.52 79 1012.2
20260903153503 27 252 0.0 0.0 0.00 1.55 1.52 79 1011.6
20260903153454 27 209 0.0 0.0 0.00 1.55 1.52 79 1012.2
20260903153154 27 221 0.0 0.0 0.00 1.55 1.52 78 1012.5
20260903153149 27 221 0.0 0.0 0.00 1.55 1.52 78 1012.5
20260903153020 27 285 0.0 0.0 0.00 1.55 1.52 78 1012.5
20260903152939 27 285 0.0 0.0 0.00 1.55 1.52 78 1012.5
20260903152837 27 212 0.0 0.0 0.00 1.55 1.52 78 1012.7
20260903152812 27 213 0.0 0.0 0.00 1.55 1.52 78 1012.7
20260903152737 27 229 0.0 0.0 0.00 1.55 1.52 78 1012.7
20260903152637 27 203 0.0 0.0 0.00 1.55 1.52 79 1012.8
20260903152536 27 163 0.0 0.0 0.00 1.55 1.52 78 1012.7
20260903152519 27 163 0.0 0.0 0.00 1.55 1.52 77 1012.8
20260903152435 27 162 0.0 0.0 0.00 1.55 1.52 77 1012.8
20260903152335 27 209 0.0 0.0 0.00 1.55 1.52 76 1012.8
20260903152312 27 284 0.0 0.0 0.00 1.55 1.52 77 1012.8
20260903152234 27 336 0.0 0.0 0.00 1.55 1.52 77 1012.9
20260903152136 27 261 0.0 0.0 0.00 1.55 1.52 77 1012.8
20260903152129 27 259 0.0 0.0 0.00 1.55 1.52 77 1012.9
20260903152125 27 259 0.0 0.0 0.00 1.55 1.52 77 1012.9
20260903152118 27 252 0.0 0.0 0.00 1.55 1.52 77 1012.9
20260903152019 27 283 0.0 0.0 0.00 1.55 1.52 77 1012.9
20260903152005 27 283 0.0 0.0 0.00 1.55 1.52 76 1012.9
20260903151956 27 287 0.0 0.0 0.00 1.55 1.52 77 1012.9
20260903151531 27 264 0.0 0.0 0.00 1.55 1.52 77 1012.9
20260903151519 27 264 0.0 0.0 0.00 1.55 1.52 77 1012.5
20260903151431 27 261 0.0 0.0 0.00 1.55 1.52 77 1012.5
20260903151350 27 259 0.0 0.0 0.00 1.55 1.52 78 1011.9
20260903151345 27 306 0.0 0.0 0.00 1.55 1.52 78 1012.7
20260903151337 27 318 0.0 0.0 0.00 1.55 1.52 78 1012.7
20260903151144 27 196 0.0 0.0 0.00 1.55 1.52 80 1009.0
20260903151138 27 284 0.0 0.0 0.00 1.55 1.52 78 1011.9
20260903151034 27 196 0.0 0.0 0.00 1.55 1.52 80 1008.9
20260903150928 27 196 0.0 0.0 0.00 1.55 1.52 80 1009.0
20260903150827 27 196 0.0 0.0 0.00 1.55 1.52 81 1009.0
20260903150809 27 194 0.0 0.0 0.00 1.55 1.52 81 1009.0
20260903150727 27 220 0.0 0.0 0.00 1.55 1.52 81 1009.0
20260903150627 27 266 0.0 0.0 0.00 1.55 1.52 82 1009.0
20260903150526 27 235 0.0 0.0 0.00 1.55 1.52 81 1008.9
20260903150519 27 236 0.0 0.0 0.00 1.55 1.52 81 1008.9
20260903150426 27 235 0.0 0.0 0.00 1.55 1.52 81 1008.9
20260903150324 27 235 0.0 0.0 0.00 1.55 1.52 81 1009.1
20260903150306 27 245 0.0 0.0 0.00 1.55 1.52 81 1009.1
20260903150224 27 247 0.0 0.0 0.00 1.55 1.52 81 1008.6
20260903150124 27 248 0.0 0.0 0.00 1.55 1.52 81 1008.7
20260903150037 27 269 0.0 0.0 0.00 1.55 1.52 81 1010.2
20260903150032 27 257 0.0 0.0 0.00 1.55 1.52 81 1010.2
20260903150019 27 257 0.0 0.0 0.00 1.55 1.52 82 1010.2
20260903145806 27 271 0.0 0.0 0.00 1.55 1.52 81 1013.0
20260903145721 27 271 0.0 0.0 0.00 1.55 1.52 81 1013.0
20260903145635 27 270 0.0 0.0 0.00 1.55 1.52 80 1013.0
20260903145629 27 271 0.0 0.0 0.00 1.55 1.52 80 1013.0
20260903145520 27 270 0.0 0.0 0.00 1.55 1.52 80 1011.3
20260903145420 27 290 0.0 0.0 0.00 1.55 1.52 80 1011.3
20260903145306 27 263 0.0 0.0 0.00 1.55 1.52 80 1011.3
20260903145218 27 268 0.0 0.0 0.00 1.55 1.52 80 1011.3
20260903145131 27 268 0.0 0.0 0.00 1.55 1.52 81 1011.9
20260903145126 27 218 0.0 0.0 0.00 1.55 1.52 80 1011.3
20260903145019 27 269 0.0 0.0 0.00 1.55 1.52 80 1011.4
20260903144917 27 270 0.0 0.0 0.00 1.55 1.52 80 1011.4
20260903144804 27 254 0.0 0.0 0.00 1.55 1.52 81 1011.1
20260903144730 27 254 0.0 0.0 0.00 1.55 1.52 81 1011.2
20260903144724 27 250 0.0 0.0 0.00 1.55 1.52 81 1011.2
20260903144519 27 254 0.0 0.0 0.00 1.55 1.52 81 1010.6
20260903144515 27 254 0.0 0.0 0.00 1.55 1.52 81 1011.2
20260903144414 27 281 0.0 0.0 0.00 1.55 1.52 82 1010.6
20260903144314 26 305 0.0 0.0 0.00 1.55 1.52 84 1010.9
20260903144304 26 233 0.0 0.0 0.00 1.55 1.52 84 1010.9
20260903144214 26 232 0.0 0.0 0.00 1.55 1.52 83 1010.9
20260903144127 26 230 0.0 0.0 0.00 1.55 1.52 85 1011.6
20260903144122 26 232 0.0 0.0 0.00 1.55 1.52 83 1011.3
20260903144019 26 246 0.0 0.0 0.00 1.55 1.52 85 1012.2
20260903143912 26 242 0.0 0.0 0.00 1.55 1.52 85 1012.2
20260903143812 26 242 0.0 0.0 0.00 1.55 1.52 85 1012.1
20260903143803 26 242 0.0 0.0 0.00 1.55 1.52 84 1009.5
20260903143725 26 241 0.0 0.0 0.00 1.55 1.52 84 1009.5
20260903143720 26 241 0.0 0.0 0.00 1.55 1.52 84 1009.5
20260903143534 26 194 0.0 0.0 0.00 1.55 1.52 84 1011.8
20260903143510 26 194 0.0 0.0 0.00 1.55 1.52 84 1009.5
20260903143410 26 194 0.0 0.0 0.00 1.55 1.52 83 1011.8
20260903143310 26 201 0.0 0.0 0.00 1.55 1.52 84 1011.8
20260903143303 26 233 0.0 0.0 0.00 1.55 1.52 84 1011.8
20260903143209 26 331 0.0 0.0 0.00 1.55 1.52 84 1011.8
20260903143108 26 255 0.0 0.0 0.00 1.55 1.52 85 1011.3
20260903143019 26 199 0.0 0.0 0.00 1.55 1.52 85 1009.9
20260903143007 26 202 0.0 0.0 0.00 1.55 1.52 85 1009.9
20260903142907 26 267 0.0 0.0 0.00 1.55 1.52 85 1009.9
20260903142810 26 275 0.0 0.0 0.00 1.55 1.52 86 1010.6
20260903142803 26 288 0.0 0.0 0.00 1.55 1.52 86 1010.6
20260903142706 26 268 0.0 0.0 0.00 1.55 1.52 86 1008.6
20260903142607 26 246 0.0 0.0 0.00 1.55 1.52 88 1008.6
20260903142519 26 261 0.0 0.0 0.00 1.55 1.52 88 1008.6
20260903142506 26 261 0.0 0.0 0.00 1.55 1.52 88 1008.6
20260903142406 26 261 0.0 0.0 0.00 1.55 1.52 88 1008.6
20260903142306 25 261 0.0 0.0 0.00 1.55 1.52 88 1008.6
20260903142207 25 262 0.0 0.0 0.00 1.55 1.52 88 1008.5
20260903142200 25 224 0.0 0.0 0.00 1.55 1.52 89 1012.2
20260903142156 25 191 0.0 0.0 0.00 1.55 1.52 89 1011.8
20260903142149 25 262 0.0 0.0 0.00 1.55 1.52 87 1012.2
20260903142020 25 236 0.0 0.0 0.00 1.55 1.52 89 1012.2
20260903141927 25 259 0.0 0.0 0.00 1.55 1.52 89 1012.2
20260903141813 25 191 0.0 0.0 0.00 1.55 1.52 89 1011.8
20260903141602 25 276 0.0 0.0 0.00 1.55 1.52 91 1009.4
20260903141519 25 205 0.0 0.0 0.00 1.55 1.52 92 1009.4
20260903141502 25 205 0.0 0.0 0.00 1.55 1.52 92 1009.4
20260903141402 25 206 0.0 0.0 0.00 1.55 1.52 92 1009.4
20260903141301 25 206 0.0 0.0 0.00 1.55 1.52 93 1010.0
20260903141200 25 207 0.0 0.0 0.00 1.55 1.52 93 1010.0
20260903141100 25 252 0.0 0.0 0.00 1.55 1.52 93 1009.0
20260903141042 25 252 0.0 0.0 0.00 1.55 1.52 93 1008.7
20260903141019 25 250 0.0 0.0 0.00 1.55 1.52 93 1009.0
20260903140959 25 250 0.0 0.0 0.00 1.55 1.52 93 1009.0
20260903140942 25 252 0.0 0.0 0.00 1.55 1.52 94 1008.9
20260903140938 24 277 0.0 0.0 0.00 1.55 1.52 94 1008.8
20260903140931 25 251 0.0 0.0 0.00 1.55 1.52 93 1008.7
20260903140817 25 252 0.0 0.0 0.00 1.55 1.52 93 1008.7
20260903140520 24 250 0.0 0.0 0.00 1.55 1.52 94 1009.1
20260903140458 24 250 0.0 0.0 0.00 1.55 1.52 94 1009.1
20260903140358 24 258 0.0 0.0 0.00 1.55 1.52 95 1009.4
20260903140257 24 242 0.0 0.0 0.00 1.55 1.52 95 1010.5
20260903140157 24 241 0.0 0.0 0.00 1.55 1.52 95 1010.5
20260903140139 24 242 0.0 0.0 0.00 1.55 1.52 95 1010.3
20260903140133 24 241 0.0 0.0 0.00 1.55 1.52 95 1010.5
20260903140034 24 242 0.0 0.0 0.00 1.55 1.52 95 1010.3
20260903135910 24 238 0.0 0.0 0.00 1.55 1.52 95 1010.6
20260903135902 24 238 0.0 0.0 0.00 1.55 1.52 95 1010.5
20260903135655 24 242 0.0 0.0 0.00 1.55 1.52 95 1011.0
20260903135554 24 242 0.0 0.0 0.00 1.55 1.52 95 1010.6
20260903135523 23 257 0.0 0.0 0.00 1.55 1.52 96 1010.5
20260903135520 24 242 0.0 0.0 0.00 1.55 1.52 95 1010.6
20260903135453 24 257 0.0 0.0 0.00 1.55 1.52 95 1010.5
20260903135407 24 257 0.0 0.0 0.00 1.55 1.52 95 1010.5
20260903135253 23 257 0.0 0.0 0.00 1.55 1.52 96 1010.5
20260903135152 23 257 0.0 0.0 0.00 1.55 1.52 96 1010.5
20260903135106 23 237 0.0 0.0 0.00 1.55 1.52 96 1010.5
20260903135100 23 256 0.0 0.0 0.00 1.55 1.52 96 1010.5
20260903135020 23 237 0.0 0.0 0.00 1.55 1.52 96 1010.5
20260903134850 23 234 0.0 0.0 0.00 1.55 1.52 96 1010.5
20260903134809 23 281 0.0 0.0 0.00 1.55 1.52 97 1011.0
20260903134804 23 255 0.0 0.0 0.00 1.55 1.52 96 1011.0
20260903134758 23 278 0.0 0.0 0.00 1.55 1.52 96 1011.0
20260903134546 23 281 0.0 0.0 0.00 1.55 1.52 97 1011.0
20260903134520 23 281 0.0 0.0 0.00 1.55 1.52 97 1011.4
20260903134459 23 281 0.0 0.0 0.00 1.55 1.52 97 1011.5
20260903134454 23 281 0.0 0.0 0.00 1.55 1.52 97 1011.4
20260903134244 23 281 0.0 0.0 0.00 1.55 1.52 97 1011.9
20260903134144 23 281 0.0 0.0 0.00 1.55 1.52 97 1012.0
20260903134042 23 281 0.0 0.0 0.00 1.55 1.52 97 1012.0
20260903134019 23 281 0.0 0.0 0.00 1.55 1.52 98 1012.1
20260903134014 23 281 0.0 0.0 0.00 1.55 1.52 98 1012.0
20260903133941 23 281 0.0 0.0 0.00 1.55 1.52 98 1012.1
20260903133902 23 281 0.0 0.0 0.00 1.55 1.52 98 1012.0
20260903133741 23 281 0.0 0.0 0.00 1.55 1.52 98 1012.0
20260903133654 23 281 0.0 0.0 0.00 1.55 1.52 98 1009.6
20260903133649 23 281 0.0 0.0 0.00 1.55 1.52 98 1011.9
20260903133535 23 281 0.0 0.0 0.00 1.55 1.52 98 1009.6
20260903133439 23 281 0.0 0.0 0.00 1.55 1.52 98 1009.6
20260903133339 23 281 0.0 0.0 0.00 1.55 1.52 98 1009.6
20260903133252 23 281 0.0 0.0 0.00 1.55 1.52 98 1009.6
20260903133238 23 281 0.0 0.0 0.00 1.55 1.52 98 1009.6
20260903133138 23 281 0.0 0.0 0.00 1.55 1.52 98 1011.8
20260903133038 23 281 0.0 0.0 0.00 1.55 1.52 98 1011.8
20260903133019 23 290 0.0 0.0 0.00 1.55 1.52 98 1010.6
20260903132937 23 290 0.0 0.0 0.00 1.55 1.52 98 1010.6
20260903132836 23 290 0.0 0.0 0.00 1.55 1.52 98 1010.6
20260903132747 23 290 0.0 0.0 0.00 1.55 1.52 98 1010.6
20260903132738 23 290 0.0 0.0 0.00 1.55 1.52 98 1010.6
20260903132627 23 292 0.0 0.0 0.00 1.55 1.52 98 1011.8
20260903132623 23 292 0.0 0.0 0.00 1.55 1.52 98 1009.5
20260903132619 22 292 0.0 0.0 0.00 1.55 1.52 98 1009.5
20260903132612 23 292 0.0 0.0 0.00 1.55 1.52 98 1009.2
20260903132603 23 292 0.0 0.0 0.00 1.55 1.52 98 1009.2
20260903132519 23 292 0.0 0.0 0.00 1.55 1.52 98 1009.2
20260903132339 23 292 0.0 0.0 0.00 1.55 1.52 98 1011.8
20260903132020 22 292 0.0 0.0 0.00 1.55 1.52 98 1009.7
20260903131932 22 292 0.0 0.0 0.00 1.55 1.52 98 1009.7
20260903131856 22 292 0.0 0.0 0.00 1.55 1.52 98 1011.0
20260903131731 22 292 0.0 0.0 0.00 1.55 1.52 98 1011.0
20260903131630 22 292 0.0 0.0 0.00 1.55 1.52 98 1009.1
20260903131530 22 291 0.0 0.0 0.00 1.55 1.52 98 1009.1
20260903131520 22 291 0.0 0.0 0.00 1.55 1.52 98 1009.1
20260903131430 22 291 0.0 0.0 0.00 1.55 1.52 98 1009.1
20260903131329 22 294 0.0 0.0 0.00 1.55 1.52 98 1009.1
20260903131248 22 295 0.0 0.0 0.00 1.55 1.52 98 1009.2
20260903131242 22 200 0.0 0.0 0.00 1.55 1.52 98 1009.2
20260903131237 22 294 0.0 0.0 0.00 1.55 1.52 98 1009.2
20260903131028 22 200 0.0 0.0 0.00 1.55 1.52 98 1009.2
20260903131020 22 200 0.0 0.0 0.00 1.55 1.52 98 1009.2
20260903131017 22 200 0.0 0.0 0.00 1.55 1.52 98 1008.9
20260903130926 22 200 0.0 0.0 0.00 1.55 1.52 98 1009.2
20260903130857 22 200 0.0 0.0 0.00 1.55 1.52 98 1009.0
20260903130740 22 200 0.0 0.0 0.00 1.55 1.52 98 1009.4
20260903130735 22 200 0.0 0.0 0.00 1.55 1.52 98 1008.9
20260903130534 22 235 0.0 0.0 0.00 1.55 1.52 98 1009.2
20260903130525 22 235 0.0 0.0 0.00 1.55 1.52 98 1009.3
20260903130425 22 235 0.0 0.0 0.00 1.55 1.52 98 1009.2
20260903130323 22 235 0.0 0.0 0.00 1.55 1.52 98 1009.3
20260903130222 22 235 0.0 0.0 0.00 1.55 1.52 98 1009.8
20260903130120 22 235 0.0 0.0 0.00 1.55 1.52 98 1010.4
20260903130020 22 234 0.0 0.0 0.00 1.55 1.52 98 1010.4
20260903125920 22 229 0.0 0.0 0.00 1.55 1.52 98 1010.1
20260903125837 22 229 0.0 0.0 0.00 1.55 1.52 98 1010.4
20260903125832 22 229 0.0 0.0 0.00 1.55 1.52 98 1009.8
20260903125824 22 229 0.0 0.0 0.00 1.55 1.52 98 1010.4
20260903125624 22 229 0.0 0.0 0.00 1.55 1.52 98 1010.5
20260903125615 21 229 0.0 0.0 0.00 1.55 1.52 98 1011.2
20260903125549 22 229 0.0 0.0 0.00 1.55 1.52 98 1011.2
20260903125416 21 229 0.0 0.0 0.00 1.55 1.52 98 1011.2
20260903125353 21 229 0.0 0.0 0.00 1.55 1.52 98 1011.9
20260903125216 21 229 0.0 0.0 0.00 1.55 1.52 98 1012.3
20260903125113 21 229 0.0 0.0 0.00 1.55 1.52 98 1012.4
20260903125019 21 229 0.0 0.0 0.00 1.55 1.52 98 1012.6
20260903125013 21 229 0.0 0.0 0.00 1.55 1.52 98 1012.6
20260903124912 21 229 0.0 0.0 0.00 1.55 1.52 98 1012.6
20260903124812 21 229 0.0 0.0 0.00 1.55 1.52 98 1012.6
20260903124743 21 229 0.0 0.0 0.00 1.55 1.52 98 1012.6
20260903124711 21 229 0.0 0.0 0.00 1.55 1.52 98 1012.6
20260903124611 21 229 0.0 0.0 0.00 1.55 1.52 98 1012.6
20260903124521 21 229 0.0 0.0 0.00 1.55 1.52 97 1012.6
20260903124511 21 229 0.0 0.0 0.00 1.55 1.52 97 1012.6
20260903124410 21 229 0.0 0.0 0.00 1.55 1.52 97 1012.6
20260903124309 21 229 0.0 0.0 0.00 1.55 1.52 97 1012.6
20260903124241 21 229 0.0 0.0 0.00 1.55 1.52 97 1012.5
20260903124208 21 229 0.0 0.0 0.00 1.55 1.52 97 1012.5
20260903124108 21 229 0.0 0.0 0.00 1.55 1.52 97 1012.5
20260903124019 21 229 0.0 0.0 0.00 1.55 1.52 97 1012.5
20260903124009 21 229 0.0 0.0 0.00 1.55 1.52 97 1012.5
20260903123952 21 229 0.0 0.0 0.00 1.55 1.52 98 1012.4
20260903123948 21 229 0.0 0.0 0.00 1.55 1.52 98 1012.5
20260903123943 21 229 0.0 3.2 0.00 1.55 1.52 98 1012.4
20260903123938 21 229 0.0 0.0 0.00 1.55 1.52 98 1012.5
20260903123820 21 229 0.0 0.0 0.00 1.55 1.52 98 1012.5
20260903123519 21 229 0.0 4.8 0.00 1.55 1.52 97 1012.5
20260903123504 21 229 0.0 4.8 0.00 1.55 1.52 97 1012.4
20260903123404 21 229 0.0 4.8 0.00 1.55 1.52 97 1012.4
20260903123336 21 229 0.0 4.8 0.00 1.55 1.52 97 1012.5
20260903123332 21 229 0.0 4.8 0.00 1.55 1.52 97 1012.5
20260903123327 21 229 0.0 4.8 0.00 1.55 1.52 97 1012.4
20260903123320 21 229 0.0 4.8 0.00 1.55 1.52 97 1012.4
20260903123019 21 229 0.0 4.8 0.00 1.55 1.52 97 1012.6
20260903123001 21 229 0.0 4.8 0.00 1.55 1.52 97 1012.5
20260903122901 21 229 0.0 4.8 0.00 1.55 1.52 97 1012.5
20260903122801 21 229 0.0 4.8 0.00 1.55 1.52 97 1012.6
20260903122741 21 229 0.0 4.8 0.00 1.55 1.52 97 1012.6
20260903122659 21 229 0.0 4.8 0.00 1.55 1.52 97 1012.6
20260903122559 21 246 0.0 4.8 0.00 1.55 1.52 97 1012.7
20260903122519 21 250 0.0 1.6 0.00 1.55 1.52 97 1012.8
20260903122459 21 250 0.0 1.6 0.00 1.55 1.52 97 1012.7
20260903122358 21 250 0.0 1.6 0.00 1.55 1.52 98 1012.7
20260903122257 21 250 0.0 1.6 0.00 1.55 1.52 98 1012.7
20260903122240 21 250 0.0 1.6 0.00 1.55 1.52 98 1012.7
20260903122224 21 250 0.0 3.2 0.00 1.55 1.52 98 1012.8
20260903122220 21 250 0.0 3.2 0.00 1.55 1.52 98 1012.8
20260903122215 21 250 0.0 3.2 0.00 1.55 1.52 98 1012.7
20260903122021 21 250 0.0 1.6 0.00 1.55 1.52 98 1012.9
20260903121909 21 250 0.0 3.2 0.00 1.55 1.52 98 1012.8
20260903121904 21 250 0.0 3.2 0.00 1.55 1.52 98 1012.8
20260903121742 21 250 0.0 3.2 0.00 1.55 1.52 98 1012.8
20260903121655 21 250 0.0 3.2 0.00 1.55 1.52 98 1012.8
20260903121554 21 250 0.0 3.2 0.00 1.55 1.52 97 1012.7
20260903121519 21 250 0.0 3.2 0.00 1.55 1.52 97 1012.8
20260903121454 21 250 0.0 3.2 0.00 1.55 1.52 97 1012.7
20260903121353 21 250 0.0 3.2 0.00 1.55 1.52 97 1012.7
20260903121312 20 242 0.0 3.2 0.00 1.55 1.52 97 1012.7
20260903121300 21 250 0.0 3.2 0.00 1.55 1.52 97 1012.7
20260903121052 20 242 0.0 3.2 0.00 1.55 1.52 97 1012.7
20260903121020 21 242 0.0 3.2 0.00 1.55 1.52 97 1012.8
20260903120951 20 242 0.0 3.2 0.00 1.55 1.52 97 1012.7
20260903120850 20 242 0.0 3.2 0.00 1.55 1.52 97 1012.7
20260903120738 20 242 0.0 3.2 0.00 1.55 1.52 97 1012.6
20260903120649 20 242 0.0 3.2 0.00 1.55 1.52 97 1012.5
20260903120549 20 254 0.0 8.0 0.00 1.55 1.52 97 1012.5
20260903120519 20 252 0.0 8.0 0.00 1.55 1.52 97 1012.6
20260903120446 20 252 0.0 8.0 0.00 1.55 1.52 97 1012.5
20260903120346 20 252 0.0 8.0 0.00 1.55 1.52 97 1012.5
20260903120242 20 167 0.0 8.0 0.00 1.55 1.52 97 1012.3
20260903120238 20 252 0.0 8.0 0.00 1.55 1.52 97 1012.5
20260903120232 20 167 0.0 8.0 0.00 1.55 1.52 97 1012.3
20260903120226 20 167 0.0 8.0 0.00 1.55 1.52 97 1012.4
20260903120019 20 167 0.0 8.0 0.00 1.55 1.52 97 1012.4
20260903115854 20 167 0.0 8.0 0.00 1.55 1.52 97 1012.2
20260903115738 20 167 1.6 8.0 0.00 1.55 1.52 97 1012.1
20260903115642 20 167 1.6 11.3 0.00 1.55 1.52 97 1012.0
20260903115542 20 184 1.6 11.3 0.00 1.55 1.52 97 1012.0
20260903115534 20 302 0.0 11.3 0.00 1.55 1.52 97 1012.1
20260903115442 20 302 1.6 11.3 0.00 1.55 1.52 97 1012.0
20260903115340 20 306 1.6 11.3 0.00 1.55 1.52 97 1012.0
20260903115236 20 306 1.6 11.3 0.00 1.55 1.52 97 1012.0
20260903115154 20 306 1.6 11.3 0.00 1.55 1.52 97 1012.3
20260903115149 20 306 1.6 11.3 0.00 1.55 1.52 97 1012.1
20260903115020 20 306 0.0 11.3 0.00 1.55 1.52 97 1012.7
20260903114938 20 306 1.6 11.3 0.00 1.55 1.52 97 1012.6
20260903114838 20 309 1.6 11.3 0.00 1.55 1.52 97 1012.6
20260903114739 20 268 1.6 11.3 0.00 1.55 1.52 97 1012.4
20260903114651 20 271 1.6 3.2 0.00 1.55 1.52 97 1011.8
20260903114646 20 276 1.6 3.2 0.00 1.55 1.52 97 1012.2
20260903114519 20 222 0.0 3.2 0.00 1.55 1.52 97 1011.8
20260903114436 20 196 1.6 3.2 0.00 1.55 1.52 97 1011.7
20260903114336 20 213 1.6 3.2 0.00 1.55 1.52 97 1011.6
20260903114237 20 155 0.0 3.2 0.00 1.55 1.52 97 1011.6
20260903114135 20 146 0.0 3.2 0.00 1.55 1.52 97 1011.6
20260903114032 20 154 0.0 3.2 0.00 1.55 1.52 97 1011.8
20260903114020 20 159 0.0 3.2 0.00 1.55 1.52 97 1012.0
20260903113933 20 170 0.0 3.2 0.00 1.55 1.52 97 1011.9
20260903113926 20 190 0.0 1.6 0.00 1.55 1.52 97 1012.3
20260903113922 20 218 0.0 1.6 0.00 1.55 1.52 97 1012.5
20260903113915 20 191 0.0 3.2 0.00 1.55 1.52 97 1012.1
20260903113802 20 150 0.0 1.6 0.00 1.55 1.52 97 1012.2
20260903113756 20 148 0.0 1.6 0.00 1.55 1.52 97 1012.2
20260903113638 20 208 0.0 1.6 0.00 1.55 1.52 97 1012.4
20260903113520 20 218 0.0 1.6 0.00 1.55 1.52 97 1012.6
20260903113416 20 218 0.0 1.6 0.00 1.55 1.52 97 1012.5
20260903113301 20 218 0.0 1.6 0.00 1.55 1.52 97 1012.6
20260903113147 20 218 0.0 1.6 0.00 1.55 1.52 97 1012.7
20260903113020 20 218 0.0 1.6 0.00 1.55 1.52 97 1012.9
20260903112829 20 218 0.0 1.6 0.00 1.55 1.52 97 1012.8
20260903112748 20 198 0.0 1.6 0.00 1.55 1.52 97 1012.7
20260903112737 20 198 0.0 1.6 0.00 1.55 1.52 97 1012.8
20260903112613 20 198 0.0 1.6 0.00 1.55 1.52 97 1012.9
20260903112605 20 198 0.0 1.6 0.00 1.55 1.52 97 1013.0
20260903112559 20 198 0.0 1.6 0.00 1.55 1.52 97 1012.8
20260903112549 20 198 0.0 1.6 0.00 1.55 1.52 97 1012.9
20260903112520 20 198 0.0 1.6 0.00 1.55 1.52 97 1013.0
20260903112125 20 215 0.0 1.6 0.00 1.55 1.52 97 1013.1
20260903112025 20 123 0.0 1.6 0.00 1.55 1.52 97 1013.1
20260903112020 20 123 0.0 1.6 0.00 1.55 1.52 97 1013.1
20260903111925 20 123 0.0 1.6 0.00 1.55 1.52 97 1013.0
20260903111824 20 123 0.0 1.6 0.00 1.55 1.52 97 1013.0
20260903111724 20 123 0.0 1.6 0.00 1.55 1.52 97 1013.0
20260903111623 20 123 0.0 3.2 0.00 1.55 1.52 97 1013.1
20260903111534 20 122 0.0 3.2 0.00 1.55 1.52 97 1013.1
20260903111523 20 122 0.0 3.2 0.00 1.55 1.52 97 1013.0
20260903111424 20 122 0.0 3.2 0.00 1.55 1.52 97 1013.0
20260903111323 20 263 0.0 3.2 0.00 1.55 1.52 97 1013.0
20260903111223 20 200 0.0 3.2 0.00 1.55 1.52 97 1013.1
20260903111122 20 200 0.0 3.2 0.00 1.55 1.52 97 1013.1
20260903111022 20 200 0.0 3.2 0.00 1.55 1.52 97 1013.1
20260903111020 20 200 0.0 3.2 0.00 1.55 1.52 97 1013.3
20260903110936 20 202 0.0 3.2 0.00 1.55 1.52 97 1013.2
20260903110930 20 200 0.0 3.2 0.00 1.55 1.52 97 1013.2
20260903110721 20 203 0.0 3.2 0.00 1.55 1.52 97 1013.2
20260903110620 20 273 0.0 3.2 0.00 1.55 1.52 97 1013.2
20260903110545 20 134 0.0 3.2 0.00 1.55 1.52 97 1013.4
20260903110520 20 273 0.0 3.2 0.00 1.55 1.52 97 1013.4
20260903110449 20 134 0.0 3.2 0.00 1.55 1.52 97 1013.4
20260903110443 20 142 0.0 3.2 0.00 1.55 1.52 97 1013.3
20260903110434 20 142 0.0 3.2 0.00 1.55 1.52 97 1013.4
20260903110117 20 134 0.0 3.2 0.00 1.55 1.52 97 1013.4
20260903110020 20 199 0.0 1.6 0.00 1.55 1.52 97 1013.6
20260903110016 20 147 0.0 3.2 0.00 1.55 1.52 97 1013.4
20260903105945 20 287 0.0 1.6 0.00 1.55 1.52 97 1013.6
20260903105915 20 287 0.0 1.6 0.00 1.55 1.52 97 1013.5
20260903105831 20 287 0.0 1.6 0.00 1.55 1.52 97 1013.5
20260903105715 20 287 0.0 1.6 0.00 1.55 1.52 97 1013.6
20260903105614 20 287 0.0 1.6 0.00 1.55 1.52 97 1013.7
20260903105528 20 287 0.0 1.6 0.00 1.55 1.52 97 1013.9
20260903105523 20 287 0.0 1.6 0.00 1.55 1.52 97 1013.8
20260903105520 20 287 0.0 1.6 0.00 1.55 1.52 97 1014.0
20260903105312 20 287 0.0 1.6 0.00 1.55 1.52 97 1014.0
20260903105210 20 287 0.0 1.6 0.00 1.55 1.52 97 1014.0
20260903105109 20 287 0.0 1.6 0.00 1.55 1.52 97 1014.1
20260903105020 20 287 0.0 1.6 0.00 1.55 1.52 97 1014.1
20260903105009 20 287 0.0 1.6 0.00 1.55 1.52 97 1014.1
20260903104909 20 287 0.0 1.6 0.00 1.55 1.52 97 1014.0
20260903104821 20 287 0.0 1.6 0.00 1.55 1.52 97 1014.0
20260903104813 20 287 0.0 1.6 0.00 1.55 1.52 97 1014.0
20260903104605 20 287 0.0 1.6 0.00 1.55 1.52 97 1014.1
20260903104535 20 287 0.0 1.6 0.00 1.55 1.52 97 1014.2
20260903104506 20 287 0.0 1.6 0.00 1.55 1.52 97 1014.1
20260903104406 20 287 0.0 1.6 0.00 1.55 1.52 97 1014.1
20260903104320 20 287 0.0 1.6 0.00 1.55 1.52 97 1014.1
20260903104312 20 287 0.0 1.6 0.00 1.55 1.52 97 1014.1
20260903104104 20 287 0.0 1.6 0.00 1.55 1.52 97 1014.1
20260903104045 20 290 0.0 4.8 0.03 1.55 1.52 97 1014.1
20260903104039 20 287 0.0 3.2 0.00 1.55 1.52 97 1014.1
20260903104020 20 287 0.0 3.2 0.00 1.55 1.52 97 1014.2
20260903103925 20 287 0.0 4.8 0.00 1.55 1.52 97 1014.1
20260903103808 20 290 0.0 4.8 0.03 1.55 1.52 97 1014.1
20260903103602 20 290 0.0 4.8 0.03 1.55 1.52 97 1014.0
20260903103520 21 290 0.0 4.8 0.03 1.55 1.52 97 1014.1
20260903103502 20 290 0.0 4.8 0.03 1.55 1.52 97 1014.0
20260903103416 20 290 0.0 4.8 0.03 1.55 1.52 97 1014.0
20260903103411 20 290 0.0 4.8 0.03 1.55 1.52 97 1014.1
20260903103216 20 284 0.0 4.8 0.03 1.55 1.52 97 1014.0
20260903103159 20 266 0.0 4.8 0.03 1.55 1.52 97 1014.1
20260903103059 20 260 0.0 4.8 0.03 1.55 1.52 97 1014.0
20260903103041 20 248 0.0 4.8 0.03 1.55 1.52 97 1013.9
20260903103037 20 248 0.0 4.8 0.03 1.55 1.52 97 1013.9
20260903103035 21 261 0.0 4.8 0.03 1.55 1.52 97 1014.1
20260903103031 20 261 0.0 4.8 0.03 1.55 1.52 97 1014.0
20260903103022 20 248 0.0 3.2 0.03 1.55 1.52 97 1013.9
20260903102556 20 248 0.0 4.8 0.03 1.55 1.52 97 1013.8
20260903102520 20 248 0.0 4.8 0.03 1.55 1.52 97 1013.9
20260903102457 20 248 0.0 4.8 0.03 1.55 1.52 97 1013.8
20260903102356 20 293 0.0 4.8 0.03 1.55 1.52 97 1013.8
20260903102255 20 293 0.0 4.8 0.05 1.55 1.52 97 1013.8
20260903102213 20 293 0.0 4.8 0.05 1.55 1.52 97 1013.8
20260903102155 20 285 0.0 4.8 0.05 1.55 1.52 97 1013.7
20260903102054 20 260 0.0 4.8 0.05 1.55 1.52 97 1013.5
20260903102020 20 282 1.6 4.8 0.05 1.55 1.52 97 1013.5
20260903101954 20 280 0.0 4.8 0.05 1.55 1.52 97 1013.4
20260903101854 20 261 0.0 4.8 0.05 1.55 1.52 97 1013.3
20260903101753 20 211 0.0 3.2 0.05 1.55 1.52 97 1013.2
20260903101726 20 207 0.0 3.2 0.08 1.55 1.52 97 1013.3
20260903101721 20 173 0.0 3.2 0.08 1.55 1.52 97 1013.3
20260903101717 20 211 0.0 3.2 0.08 1.55 1.52 97 1013.2
20260903101710 20 161 0.0 3.2 0.08 1.55 1.52 97 1013.3
20260903101534 20 173 0.0 1.6 0.08 1.55 1.52 97 1013.4
20260903101351 20 154 0.0 3.2 0.08 1.55 1.52 97 1013.3
20260903101310 20 201 0.0 3.2 0.10 1.55 1.52 97 1013.3
20260903101305 20 153 0.0 3.2 0.08 1.55 1.52 97 1013.3
20260903101257 20 201 0.0 3.2 0.08 1.55 1.52 97 1013.3
20260903101050 20 188 0.0 1.6 0.10 1.55 1.52 97 1013.4
20260903101035 20 160 1.6 1.6 0.10 1.55 1.52 97 1013.6
20260903100948 20 159 0.0 1.6 0.10 1.55 1.52 97 1013.5
20260903100848 20 184 0.0 1.6 0.10 1.55 1.52 97 1013.6
20260903100821 20 184 0.0 1.6 0.13 1.55 1.52 97 1013.8
20260903100816 20 184 0.0 1.6 0.13 1.55 1.52 97 1013.8
20260903100802 20 184 0.0 1.6 0.13 1.55 1.52 97 1013.8
20260903100519 20 184 0.0 1.6 0.13 1.55 1.52 97 1013.9
20260903100446 20 184 0.0 1.6 0.13 1.55 1.52 97 1013.8
20260903100346 20 184 0.0 1.6 0.13 1.55 1.52 97 1013.7
20260903100245 20 246 0.0 1.6 0.15 1.55 1.52 97 1013.7
20260903100213 20 246 0.0 1.6 0.15 1.55 1.52 97 1013.7
20260903100144 20 246 0.0 1.6 0.15 1.55 1.52 97 1013.7
20260903100044 20 246 0.0 1.6 0.15 1.55 1.52 97 1013.7
20260903100020 20 287 1.6 1.6 0.15 1.55 1.52 97 1013.8
20260903095943 20 302 0.0 1.6 0.15 1.55 1.52 97 1013.7
20260903095842 20 167 0.0 1.6 0.18 1.55 1.52 97 1013.6
20260903095713 20 167 0.0 1.6 0.18 1.55 1.52 97 1013.6
20260903095640 20 167 0.0 1.6 0.18 1.55 1.52 97 1013.6
20260903095539 20 167 0.0 1.6 0.18 1.55 1.52 97 1013.6
20260903095520 20 282 0.0 1.6 0.18 1.55 1.52 97 1013.8
20260903095439 20 282 0.0 1.6 0.18 1.55 1.52 97 1013.7
20260903095339 20 282 0.0 1.6 0.20 1.55 1.52 97 1013.8
20260903095238 20 282 0.0 1.6 0.20 1.55 1.52 97 1013.8
20260903095212 20 282 0.0 3.2 0.20 1.55 1.52 97 1013.8
20260903095152 20 281 0.0 11.3 0.20 1.55 1.52 97 1013.8
20260903095146 20 282 0.0 6.4 0.20 1.55 1.52 97 1013.8
20260903095020 20 281 0.0 11.3 0.23 1.55 1.52 97 1013.9
20260903094937 20 281 1.6 11.3 0.23 1.55 1.52 97 1013.8
20260903094835 20 281 1.6 11.3 0.23 1.55 1.52 97 1013.8
20260903094735 20 9 1.6 11.3 0.23 1.55 1.52 97 1013.8
20260903094712 20 13 1.6 11.3 0.23 1.55 1.52 97 1013.8
20260903094635 20 14 1.6 11.3 0.23 1.55 1.52 97 1013.6
20260903094534 20 14 1.6 11.3 0.23 1.55 1.52 97 1013.7
20260903094520 20 14 0.0 11.3 0.23 1.55 1.52 97 1013.8
20260903094513 20 14 1.6 11.3 0.23 1.55 1.52 97 1013.7
20260903094401 20 252 1.6 11.3 0.23 1.55 1.52 97 1013.4
20260903094355 20 257 1.6 11.3 0.23 1.55 1.52 97 1013.6
20260903094239 20 228 1.6 11.3 0.23 1.55 1.52 97 1013.5
20260903094031 20 188 1.6 11.3 0.23 1.55 1.52 97 1013.2
20260903094020 20 188 0.0 11.3 0.23 1.55 1.52 97 1013.2
20260903093930 20 178 1.6 11.3 0.23 1.55 1.52 97 1013.1
20260903093844 20 213 1.6 11.3 0.20 1.52 1.50 97 1013.0
20260903093838 20 190 1.6 11.3 0.23 1.55 1.52 97 1013.0
20260903093710 20 170 1.6 11.3 0.20 1.52 1.50 97 1013.0
20260903093629 20 167 1.6 11.3 0.20 1.52 1.50 97 1013.0
20260903093528 20 184 1.6 12.9 0.23 1.52 1.50 97 1012.9
20260903093519 20 145 1.6 12.9 0.23 1.52 1.50 97 1012.9
20260903093427 20 140 3.2 12.9 0.23 1.52 1.50 97 1012.8
20260903093341 20 193 3.2 12.9 0.23 1.52 1.50 97 1012.8
20260903093335 20 147 3.2 12.9 0.23 1.52 1.50 97 1012.7
20260903093209 20 132 3.2 12.9 0.23 1.52 1.50 97 1012.8
20260903093126 20 173 1.6 12.9 0.23 1.52 1.50 97 1012.8
20260903093050 20 202 3.2 12.9 0.23 1.52 1.50 97 1013.0
20260903093025 20 189 1.6 12.9 0.23 1.52 1.50 97 1012.8
20260903092938 20 159 1.6 12.9 0.25 1.55 1.50 97 1013.0
20260903092924 20 170 1.6 12.9 0.23 1.52 1.50 97 1012.9
20260903092824 20 163 1.6 12.9 0.23 1.55 1.50 97 1012.9
20260903092815 20 166 1.6 12.9 0.25 1.55 1.50 97 1013.0
20260903092622 20 145 0.0 12.9 0.25 1.55 1.50 97 1013.1
20260903092534 20 151 1.6 3.2 0.25 1.55 1.50 97 1013.6
20260903092522 20 162 0.0 3.2 0.25 1.55 1.50 97 1013.3
20260903092421 20 180 0.0 3.2 0.25 1.55 1.50 97 1013.5
20260903092320 20 178 0.0 3.2 0.23 1.52 1.50 97 1013.6
20260903092220 20 192 0.0 3.2 0.25 1.52 1.47 97 1013.7
20260903092208 20 179 0.0 3.2 0.25 1.52 1.47 97 1013.7
20260903092119 20 170 0.0 1.6 0.28 1.52 1.47 97 1013.8
20260903092021 20 170 0.0 1.6 0.28 1.52 1.47 97 1014.0
20260903092019 20 170 0.0 1.6 0.30 1.52 1.47 97 1013.8
20260903091918 20 170 0.0 1.6 0.30 1.52 1.47 97 1013.9
20260903091818 20 170 0.0 1.6 0.33 1.52 1.47 97 1013.9
20260903091707 20 170 0.0 1.6 0.30 1.50 1.45 97 1013.9
20260903091617 20 170 0.0 1.6 0.30 1.50 1.45 97 1013.9
20260903091520 20 170 0.0 1.6 0.30 1.50 1.45 97 1013.9
20260903091517 20 170 0.0 1.6 0.30 1.50 1.45 97 1013.9
20260903091431 20 166 0.0 1.6 0.33 1.50 1.45 97 1013.9
20260903091425 20 165 0.0 1.6 0.33 1.50 1.45 97 1013.8
20260903091235 20 191 0.0 1.6 0.30 1.47 1.42 97 1014.0
20260903091230 20 191 0.0 1.6 0.33 1.50 1.45 97 1014.0
20260903091223 20 191 0.0 1.6 0.30 1.47 1.45 97 1014.0
20260903091035 20 191 0.0 1.6 0.30 1.47 1.42 97 1014.2
20260903091029 20 191 0.0 1.6 0.30 1.47 1.42 97 1014.1
20260903091023 20 191 0.0 1.6 0.30 1.47 1.42 97 1014.2
20260903090814 20 191 0.0 1.6 0.28 1.45 1.42 97 1014.1
20260903090714 20 192 0.0 1.6 0.28 1.45 1.40 97 1014.1
20260903090701 20 192 0.0 1.6 0.28 1.45 1.40 97 1014.0
20260903090613 20 177 0.0 1.6 0.28 1.45 1.40 97 1014.0
20260903090525 20 207 0.0 1.6 0.30 1.45 1.40 97 1014.1
20260903090520 20 207 1.6 1.6 0.30 1.45 1.40 97 1014.2
20260903090312 20 207 0.0 1.6 0.30 1.45 1.40 97 1014.2
20260903090208 20 207 0.0 1.6 0.28 1.42 1.40 97 1014.2
20260903090201 20 207 0.0 1.6 0.28 1.42 1.40 97 1014.1
20260903090107 20 207 0.0 1.6 0.28 1.42 1.37 97 1014.1
20260903090019 20 207 0.0 1.6 0.28 1.42 1.37 97 1014.1
20260903090007 20 207 0.0 1.6 0.30 1.42 1.37 97 1014.1
20260903085905 20 207 0.0 1.6 0.28 1.40 1.37 97 1014.0
20260903085806 20 207 0.0 1.6 0.28 1.40 1.35 97 1013.9
20260903085708 20 207 0.0 1.6 0.28 1.40 1.35 97 1013.8
20260903085701 20 207 0.0 1.6 0.28 1.40 1.35 97 1013.8
20260903085604 20 207 0.0 1.6 0.28 1.40 1.35 97 1013.8
20260903085520 20 207 0.0 1.6 0.28 1.40 1.35 97 1014.0
20260903085504 20 207 0.0 1.6 0.28 1.40 1.35 97 1013.9
20260903085403 20 207 0.0 1.6 0.28 1.37 1.35 97 1013.9
20260903085305 20 207 0.0 3.2 0.28 1.37 1.32 97 1014.0
20260903085200 20 207 0.0 3.2 0.28 1.37 1.32 97 1014.0
20260903085102 20 207 0.0 3.2 0.28 1.37 1.32 97 1014.0
20260903085020 20 207 0.0 3.2 0.25 1.35 1.30 97 1014.2
20260903085001 20 207 0.0 3.2 0.25 1.35 1.30 97 1014.1
20260903084901 20 207 0.0 3.2 0.25 1.35 1.30 97 1014.0
20260903084829 20 207 0.0 3.2 0.25 1.35 1.30 97 1014.0
20260903084712 20 137 0.0 3.2 0.25 1.35 1.30 97 1013.9
20260903084550 20 136 0.0 3.2 0.25 1.35 1.30 97 1014.0
20260903084500 20 136 0.0 3.2 0.25 1.35 1.30 97 1013.9
20260903084359 20 137 0.0 3.2 0.25 1.35 1.30 97 1014.0
20260903084259 20 136 0.0 3.2 0.25 1.35 1.30 97 1014.1
20260903084205 20 136 0.0 3.2 0.25 1.35 1.30 97 1014.2
20260903084159 20 137 0.0 3.2 0.25 1.35 1.30 97 1014.2
20260903084056 20 121 0.0 3.2 0.25 1.35 1.30 97 1014.3
20260903084019 20 9 0.0 3.2 0.25 1.35 1.30 97 1014.5
20260903084017 20 9 0.0 3.2 0.28 1.35 1.30 97 1014.4
20260903083904 20 9 0.0 3.2 0.28 1.35 1.30 97 1014.4
20260903083654 20 9 0.0 3.2 0.30 1.35 1.30 97 1014.4
20260903083554 20 152 0.0 3.2 0.28 1.32 1.27 97 1014.4
20260903083519 20 152 0.0 3.2 0.28 1.32 1.27 97 1014.5
20260903083454 20 152 0.0 3.2 0.28 1.32 1.27 97 1014.4
20260903083408 20 188 0.0 1.6 0.28 1.32 1.27 97 1014.6
20260903083402 20 165 0.0 3.2 0.28 1.32 1.27 97 1014.5
20260903083153 20 213 0.0 1.6 0.28 1.32 1.27 97 1014.6
20260903083114 20 213 0.0 1.6 0.28 1.32 1.27 97 1014.6
20260903083020 20 213 0.0 3.2 0.28 1.32 1.27 97 1014.8
20260903083000 20 213 0.0 3.2 0.28 1.32 1.27 97 1014.7
20260903082751 20 213 0.0 8.0 0.25 1.30 1.24 97 1014.8
20260903082650 20 213 0.0 8.0 0.25 1.30 1.24 97 1014.9
20260903082550 20 213 0.0 8.0 0.25 1.30 1.24 97 1014.9
20260903082520 20 213 0.0 8.0 0.25 1.30 1.24 97 1015.1
20260903082449 20 213 1.6 8.0 0.25 1.30 1.24 97 1015.0
20260903082349 20 217 1.6 8.0 0.25 1.30 1.24 97 1015.1
20260903082308 20 213 1.6 8.0 0.23 1.27 1.22 97 1015.4
20260903082306 20 211 1.6 8.0 0.23 1.27 1.24 97 1015.2
20260903082255 20 211 1.6 8.0 0.23 1.27 1.22 97 1015.4
20260903082047 20 213 1.6 8.0 0.20 1.24 1.19 97 1015.6
20260903082020 20 240 1.6 8.0 0.20 1.24 1.19 97 1015.8
20260903081946 20 252 1.6 8.0 0.18 1.22 1.19 97 1015.7
20260903081925 20 196 1.6 4.8 0.15 1.19 1.14 97 1016.0
20260903081846 20 250 1.6 8.0 0.15 1.19 1.17 97 1015.9
20260903081800 20 199 1.6 4.8 0.15 1.19 1.14 97 1016.1
20260903081645 20 196 1.6 4.8 0.15 1.19 1.14 97 1016.0
20260903081544 20 196 1.6 4.8 0.15 1.19 1.14 97 1016.0
20260903081520 20 195 1.6 4.8 0.15 1.19 1.14 97 1015.8
20260903081444 20 195 1.6 4.8 0.15 1.19 1.14 97 1015.7
20260903081344 20 195 1.6 4.8 0.13 1.17 1.12 97 1015.6
20260903081242 20 194 0.0 4.8 0.13 1.17 1.12 97 1015.3
20260903081142 20 194 0.0 4.8 0.13 1.17 1.12 97 1015.0
20260903081041 20 194 0.0 4.8 0.13 1.17 1.12 97 1014.8
20260903081020 20 181 1.6 4.8 0.13 1.17 1.12 97 1014.8
20260903080941 20 181 0.0 4.8 0.13 1.17 1.12 97 1014.7
20260903080841 20 169 0.0 3.2 0.13 1.17 1.12 97 1014.6
20260903080740 20 51 0.0 1.6 0.13 1.17 1.12 97 1014.7
20260903080639 20 51 0.0 3.2 0.13 1.17 1.12 97 1014.6
20260903080539 20 51 0.0 3.2 0.10 1.14 1.09 97 1014.7
20260903080520 20 51 0.0 3.2 0.10 1.14 1.09 97 1014.8
20260903080438 20 51 0.0 3.2 0.10 1.14 1.09 97 1014.7
20260903080337 20 95 0.0 3.2 0.10 1.14 1.09 97 1014.6
20260903080237 20 95 0.0 3.2 0.10 1.14 1.09 97 1014.7
20260903080137 20 95 0.0 6.4 0.10 1.14 1.09 97 1014.7
20260903080036 20 95 0.0 6.4 0.08 1.12 1.09 97 1014.8
20260903080021 20 95 0.0 6.4 0.10 1.14 1.09 97 1014.8
20260903075934 20 95 0.0 6.4 0.08 1.12 1.07 97 1014.7
20260903075848 20 95 0.0 6.4 0.08 1.12 1.07 97 1014.8
20260903075843 20 95 0.0 6.4 0.08 1.12 1.07 97 1014.7
20260903075651 20 96 0.0 6.4 0.08 1.12 1.07 97 1015.1
20260903075633 20 350 0.0 6.4 0.08 1.12 1.07 97 1015.1
20260903075533 20 292 0.0 6.4 0.08 1.12 1.07 97 1015.4
20260903075520 20 292 0.0 6.4 0.08 1.12 1.07 97 1015.6
20260903075445 20 292 0.0 6.4 0.05 1.09 1.04 97 1015.6
20260903075440 20 292 0.0 6.4 0.05 1.09 1.07 97 1015.5
20260903075246 20 293 0.0 6.4 0.05 1.09 1.04 97 1015.5
20260903075238 20 312 0.0 6.4 0.05 1.09 1.04 97 1015.5
20260903075031 20 312 0.0 6.4 0.05 1.09 1.04 97 1015.4
20260903075020 20 312 0.0 6.4 0.05 1.09 1.04 97 1015.5
20260903074930 20 309 0.0 6.4 0.05 1.09 1.04 97 1015.4
20260903074830 20 309 0.0 6.4 0.05 1.09 1.04 97 1015.4
20260903074729 20 308 0.0 6.4 0.05 1.09 1.04 97 1015.4
20260903074657 20 252 0.0 1.6 0.05 1.09 1.04 97 1015.4
20260903074650 20 252 0.0 0.0 0.05 1.09 1.04 97 1015.4
20260903074537 20 252 0.0 0.0 0.05 1.09 1.04 97 1015.3
20260903074520 20 252 0.0 0.0 0.05 1.09 1.04 97 1015.3
20260903074354 20 186 0.0 0.0 0.05 1.09 1.04 97 1015.0
20260903074240 20 186 0.0 0.0 0.05 1.09 1.04 97 1015.0
20260903074232 20 186 0.0 0.0 0.05 1.09 1.04 97 1015.0
20260903074025 20 186 0.0 0.0 0.05 1.09 1.04 97 1015.0
20260903074020 20 186 0.0 0.0 0.05 1.09 1.04 97 1015.1
20260903073926 20 186 0.0 0.0 0.03 1.07 1.04 97 1015.0
20260903073836 20 186 0.0 0.0 0.00 1.04 1.02 97 1015.0
20260903073831 20 186 0.0 0.0 0.03 1.07 1.02 97 1015.0
20260903073621 20 186 0.0 0.0 0.00 1.04 0.99 97 1015.0
20260903073604 20 186 0.0 0.0 0.00 1.04 0.99 97 1015.1
20260903073535 20 186 0.0 0.0 0.00 1.04 0.99 97 1015.0
20260903073530 20 186 0.0 0.0 0.00 1.04 0.99 97 1014.9
20260903073319 20 186 0.0 0.0 0.00 1.04 0.99 97 1014.9
20260903073219 20 186 0.0 0.0 0.00 1.04 0.99 97 1014.9
20260903073152 20 186 0.0 0.0 0.00 1.04 0.99 97 1014.8
20260903073118 20 186 0.0 0.0 0.00 1.04 0.99 97 1014.8
20260903073020 20 186 0.0 0.0 0.00 1.04 0.99 97 1014.7
20260903073018 20 186 0.0 0.0 0.00 1.04 0.99 97 1014.7
20260903072923 20 186 0.0 0.0 0.00 1.04 0.99 97 1014.4
20260903072917 20 186 0.0 0.0 0.00 1.04 0.99 97 1014.6
20260903072817 20 186 0.0 0.0 0.00 1.04 0.99 97 1014.4
20260903072805 20 186 0.0 0.0 0.00 1.04 0.99 97 1014.4
20260903072651 20 186 0.0 0.0 0.00 1.04 0.99 97 1014.4
20260903072538 20 186 0.0 0.0 0.00 1.04 0.99 97 1014.5
20260903072534 20 186 0.0 0.0 0.03 1.04 0.99 97 1014.6
20260903072529 20 186 0.0 0.0 0.00 1.04 0.99 97 1014.5
20260903072519 20 186 0.0 0.0 0.00 1.04 0.99 97 1014.6
20260903072415 20 186 0.0 0.0 0.00 1.04 0.99 97 1014.5
20260903072406 20 186 0.0 0.0 0.00 1.04 0.99 97 1014.6
20260903072145 20 186 0.0 0.0 0.03 1.04 0.99 97 1014.5
20260903072138 20 186 0.0 0.0 0.00 1.04 0.99 97 1014.5
20260903072050 20 186 0.0 0.0 0.00 1.04 0.99 97 1014.6
20260903071710 20 186 0.0 0.0 0.03 1.04 0.99 97 1014.5
20260903071646 20 186 0.0 0.0 0.03 1.04 0.99 97 1014.5
20260903071610 20 186 0.0 0.0 0.03 1.04 0.99 97 1014.5
20260903071519 20 186 0.0 0.0 0.03 1.04 0.99 97 1014.6
20260903071510 20 186 0.0 0.0 0.03 1.04 0.99 97 1014.5
20260903071409 20 186 0.0 0.0 0.03 1.04 0.99 97 1014.5
20260903071323 20 186 0.0 0.0 0.08 1.04 0.99 97 1014.4
20260903071318 20 186 0.0 0.0 0.05 1.04 0.99 97 1014.5
20260903071143 20 186 0.0 0.0 0.08 1.04 0.99 97 1014.5
20260903071108 20 186 0.0 0.0 0.08 1.04 0.99 97 1014.5
20260903071020 20 186 0.0 0.0 0.10 1.04 0.99 97 1014.5
20260903071014 20 186 0.0 0.0 0.10 1.04 0.99 97 1014.5
20260903070805 20 186 0.0 0.0 0.10 1.04 0.99 97 1014.5
20260903070705 20 186 0.0 0.0 0.10 1.04 0.99 97 1014.4
20260903070643 20 186 0.0 0.0 0.10 1.04 0.99 97 1014.4
20260903070604 20 186 0.0 0.0 0.10 1.04 0.99 97 1014.4
20260903070520 20 186 0.0 0.0 0.13 1.04 0.99 97 1014.5
20260903070503 20 186 0.0 0.0 0.13 1.04 0.99 97 1014.4
20260903070403 20 186 0.0 0.0 0.13 1.04 0.99 97 1014.4
20260903070303 20 186 0.0 0.0 0.13 1.04 0.99 97 1014.4
20260903070142 20 186 0.0 0.0 0.13 1.04 0.99 97 1014.4
20260903070019 20 186 0.0 0.0 0.15 1.04 0.99 97 1014.5
20260903070000 20 186 0.0 0.0 0.15 1.04 0.99 97 1014.4
20260903065859 20 186 0.0 0.0 0.15 1.04 0.99 97 1014.4
20260903065758 20 186 0.0 0.0 0.15 1.04 0.99 96 1014.4
20260903065640 20 186 0.0 0.0 0.18 1.04 0.99 96 1014.3
20260903065557 20 186 0.0 0.0 0.18 1.04 0.99 96 1014.4
20260903065520 20 186 0.0 0.0 0.18 1.04 0.99 96 1014.5
20260903065456 20 186 0.0 0.0 0.18 1.04 0.99 96 1014.4
20260903065356 20 186 0.0 0.0 0.18 1.04 0.99 96 1014.5
20260903065255 20 186 0.0 0.0 0.18 1.04 0.99 96 1014.5
20260903065141 20 186 0.0 0.0 0.20 1.04 0.99 96 1014.5
20260903065053 20 186 0.0 0.0 0.23 1.04 0.99 96 1014.4
20260903065035 20 186 0.0 0.0 0.23 1.04 0.99 96 1014.5
20260903064953 20 186 0.0 0.0 0.28 1.04 0.99 96 1014.4
20260903064853 20 186 0.0 0.0 0.28 1.04 0.99 96 1014.4
20260903064808 20 186 0.0 0.0 0.43 1.04 0.99 96 1014.3
20260903064803 20 186 0.0 0.0 0.36 1.04 0.99 96 1014.3
20260903064639 20 186 0.0 0.0 0.43 1.04 0.99 96 1014.3
20260903064551 20 186 0.0 0.0 0.56 1.04 0.99 96 1014.3
20260903064535 20 186 0.0 0.0 0.61 1.04 0.99 96 1014.3
20260903064451 20 186 0.0 0.0 0.66 1.04 0.99 96 1014.2
20260903064350 20 186 0.0 0.0 0.74 1.04 0.99 96 1014.2
20260903064248 20 186 0.0 0.0 0.79 1.04 0.99 96 1014.2
20260903064138 20 186 0.0 0.0 0.81 1.04 0.99 96 1014.2
20260903064046 20 186 0.0 0.0 0.84 1.04 0.99 96 1014.3
20260903064020 20 186 0.0 0.0 0.81 1.04 0.99 96 1014.4
20260903063945 20 186 0.0 0.0 0.84 1.04 0.99 96 1014.3
20260903063845 20 186 0.0 0.0 0.86 1.04 0.99 96 1014.4
20260903063744 20 186 0.0 0.0 0.86 1.04 0.99 96 1014.3
20260903063643 20 186 0.0 0.0 0.86 1.04 0.99 96 1014.3
20260903063637 20 186 0.0 0.0 0.89 1.04 0.99 96 1014.3
20260903063557 20 186 0.0 0.0 0.89 1.04 0.99 96 1014.3
20260903063552 20 186 0.0 0.0 0.89 1.04 0.99 96 1014.3
20260903063520 20 186 0.0 0.0 0.89 1.04 0.99 96 1014.4
20260903063342 20 186 0.0 0.0 0.89 1.04 0.99 96 1014.3
20260903063242 20 186 0.0 0.0 0.91 1.04 0.99 96 1014.4
20260903063136 20 186 0.0 0.0 0.91 1.04 0.99 96 1014.4
20260903063041 20 186 0.0 0.0 0.91 1.04 0.99 96 1014.4
20260903063020 20 186 0.0 0.0 0.91 1.04 0.99 96 1014.6
20260903062940 20 186 0.0 0.0 0.91 1.04 0.99 96 1014.5
20260903062840 20 186 0.0 0.0 0.94 1.04 0.99 96 1014.4
20260903062757 20 186 0.0 0.0 0.97 1.04 0.99 96 1014.3
20260903062751 20 186 0.0 0.0 0.94 1.04 0.99 96 1014.4
20260903062635 20 186 0.0 0.0 0.97 1.04 0.99 96 1014.3
20260903062538 20 186 0.0 0.0 0.97 1.04 0.99 96 1014.4
20260903062520 20 186 0.0 0.0 0.97 1.04 0.99 96 1014.5
20260903062438 20 186 0.0 0.0 0.97 1.04 0.99 96 1014.4
20260903062337 20 186 0.0 0.0 0.97 1.04 0.99 96 1014.5
20260903062237 20 186 0.0 0.0 0.97 1.04 0.99 96 1014.6
20260903062133 20 186 0.0 0.0 0.97 1.04 0.99 96 1014.6
20260903062037 20 186 0.0 0.0 0.97 1.04 0.99 96 1014.7
20260903062020 20 186 0.0 0.0 0.97 1.04 0.99 96 1014.8
20260903061937 20 186 0.0 0.0 0.97 1.02 0.99 96 1014.7
20260903061836 20 186 0.0 0.0 0.97 1.02 0.97 96 1014.8
20260903061736 20 186 0.0 0.0 0.97 1.02 0.97 96 1014.8
20260903061718 20 186 0.0 0.0 0.97 1.02 0.97 96 1014.9
20260903061705 20 186 0.0 0.0 0.97 1.02 0.97 96 1014.9
20260903061534 20 186 0.0 0.0 0.97 1.02 0.97 96 1015.1
20260903061444 20 186 0.0 0.0 0.97 1.02 0.97 96 1015.0
20260903061234 20 186 0.0 0.0 0.94 0.99 0.94 96 1015.1
20260903061135 20 186 0.0 0.0 0.91 0.97 0.94 96 1015.2
20260903061035 20 188 0.0 0.0 0.91 0.97 0.91 96 1015.3
20260903061033 20 188 0.0 0.0 0.91 0.97 0.91 96 1015.2
20260903061001 20 188 0.0 0.0 0.89 0.94 0.91 96 1015.2
20260903060832 20 187 0.0 0.0 0.89 0.94 0.89 96 1015.1
20260903060746 20 201 0.0 0.0 0.89 0.94 0.89 96 1015.1
20260903060736 20 263 0.0 0.0 0.89 0.94 0.89 96 1015.1
20260903060530 20 263 0.0 0.0 0.86 0.91 0.86 96 1015.2
20260903060521 20 263 0.0 0.0 0.86 0.91 0.86 96 1015.2
20260903060430 20 263 0.0 0.0 0.86 0.91 0.86 96 1015.1
20260903060330 20 263 0.0 0.0 0.86 0.91 0.86 96 1014.9
20260903060229 20 88 0.0 0.0 0.86 0.91 0.86 96 1014.8
20260903060128 20 144 0.0 0.0 0.86 0.91 0.86 96 1014.6
20260903060028 20 117 0.0 0.0 0.84 0.89 0.84 96 1014.5
20260903060020 20 117 0.0 0.0 0.84 0.89 0.84 96 1014.4
20260903055926 20 100 0.0 0.0 0.84 0.89 0.84 96 1014.3
20260903055825 20 132 0.0 0.0 0.84 0.89 0.84 96 1014.2
20260903055725 20 109 0.0 0.0 0.84 0.89 0.84 96 1014.0
20260903055631 20 96 0.0 0.0 0.81 0.86 0.84 96 1014.0
20260903055624 20 109 0.0 0.0 0.81 0.86 0.84 96 1014.0
20260903055524 20 103 0.0 0.0 0.81 0.86 0.81 96 1013.9
20260903055520 20 109 0.0 0.0 0.81 0.86 0.81 96 1014.2
20260903055437 20 165 0.0 0.0 0.81 0.86 0.81 96 1014.2
20260903055432 20 84 0.0 0.0 0.81 0.86 0.81 96 1014.1
20260903055249 20 107 0.0 0.0 0.81 0.86 0.81 96 1014.2
20260903055137 20 101 0.0 0.0 0.79 0.84 0.79 96 1014.2
20260903055130 20 92 0.0 0.0 0.79 0.84 0.79 96 1014.2
20260903055020 20 115 0.0 0.0 0.76 0.81 0.76 96 1014.5
20260903054921 20 134 0.0 0.0 0.71 0.76 0.74 96 1014.4
20260903054820 20 114 0.0 0.0 0.64 0.69 0.69 96 1014.6
20260903054720 20 101 0.0 0.0 0.56 0.61 0.61 96 1014.9
20260903054622 20 112 0.0 0.0 0.43 0.48 0.53 96 1015.4
20260903054535 20 209 0.0 0.0 0.38 0.43 0.38 96 1016.5
20260903054530 20 173 0.0 0.0 0.43 0.48 0.43 96 1015.9
20260903054320 20 220 0.0 0.0 0.25 0.30 0.25 96 1016.5
20260903054220 20 229 0.0 0.0 0.20 0.25 0.20 96 1016.7
20260903054125 20 230 0.0 0.0 0.18 0.23 0.18 96 1016.8
20260903054119 20 231 0.0 0.0 0.18 0.23 0.18 96 1016.8
20260903054020 20 255 0.0 0.0 0.18 0.23 0.18 96 1016.7
20260903054018 20 232 0.0 0.0 0.15 0.20 0.18 96 1016.7
20260903053918 20 274 0.0 0.0 0.15 0.20 0.15 96 1016.6
20260903053818 20 278 0.0 0.0 0.13 0.18 0.15 96 1016.4
20260903053716 20 323 0.0 0.0 0.13 0.18 0.13 96 1016.2
20260903053634 20 309 0.0 0.0 0.10 0.15 0.10 96 1015.9
20260903053625 20 309 0.0 0.0 0.10 0.15 0.13 96 1016.0
20260903053520 20 309 0.0 0.0 0.10 0.15 0.10 96 1015.9
20260903053415 20 309 0.0 0.0 0.10 0.15 0.10 95 1015.8
20260903053347 20 79 0.0 0.0 0.08 0.13 0.08 96 1015.7
20260903053343 20 79 0.0 0.0 0.08 0.13 0.08 96 1015.7
20260903053337 20 309 0.0 0.0 0.08 0.13 0.10 95 1015.7
20260903053219 21 79 0.0 0.0 0.08 0.13 0.08 96 1015.7
20260903053020 21 11 0.0 0.0 0.08 0.13 0.08 96 1015.9
20260903053013 21 11 0.0 0.0 0.08 0.13 0.08 96 1015.7
20260903052913 21 12 0.0 0.0 0.05 0.10 0.08 96 1015.8
20260903052811 21 35 0.0 0.0 0.05 0.10 0.05 96 1015.8
20260903052711 21 35 0.0 0.0 0.05 0.10 0.05 96 1015.9
20260903052623 21 37 0.0 0.0 0.03 0.08 0.05 96 1015.9
20260903052611 21 96 0.0 0.0 0.03 0.08 0.05 96 1015.9
20260903052520 21 22 0.0 0.0 0.03 0.08 0.03 96 1016.0
20260903052510 21 22 0.0 0.0 0.03 0.08 0.03 96 1015.9
20260903052410 21 355 0.0 0.0 0.03 0.08 0.03 96 1015.9
20260903052309 21 67 0.0 0.0 0.03 0.08 0.03 96 1016.0
20260903052208 21 102 0.0 0.0 0.03 0.08 0.03 96 1016.1
20260903052107 21 102 0.0 0.0 0.03 0.08 0.03 96 1016.1
20260903052021 21 102 0.0 0.0 0.00 0.05 0.00 96 1016.1
20260903052016 21 102 0.0 0.0 0.03 0.08 0.03 96 1016.1
20260903051807 21 102 0.0 0.0 0.00 0.05 0.00 96 1016.0
20260903051707 21 102 0.0 0.0 0.00 0.05 0.00 96 1016.0
20260903051606 21 102 0.0 0.0 0.00 0.05 0.00 96 1016.0
20260903051520 21 102 0.0 0.0 0.00 0.05 0.00 96 1016.1
20260903051506 21 102 0.0 0.0 0.00 0.05 0.00 96 1016.0
20260903051405 21 102 0.0 0.0 0.00 0.05 0.00 95 1016.0
20260903051305 21 102 0.0 0.0 0.00 0.05 0.00 95 1016.0
20260903051223 21 102 0.0 0.0 0.00 0.05 0.00 95 1015.9
20260903051219 21 102 0.0 0.0 0.00 0.05 0.00 95 1016.0
20260903051210 21 102 0.0 0.0 0.00 0.05 0.00 95 1016.0
20260903051020 21 102 0.0 0.0 0.00 0.05 0.00 95 1016.1
20260903051004 21 102 0.0 0.0 0.00 0.05 0.00 95 1016.0
20260903050903 21 102 0.0 0.0 0.00 0.05 0.00 95 1015.9
20260903050802 21 102 0.0 0.0 0.00 0.05 0.00 95 1015.9
20260903050702 21 102 0.0 0.0 0.00 0.05 0.00 95 1015.9
20260903050620 21 102 0.0 0.0 0.00 0.05 0.00 95 1015.9
20260903050601 21 102 0.0 0.0 0.00 0.05 0.00 95 1015.9
20260903050520 21 102 0.0 0.0 0.00 0.05 0.00 95 1015.9
20260903050513 21 102 0.0 0.0 0.00 0.05 0.00 96 1015.8
20260903050509 21 102 0.0 0.0 0.00 0.05 0.00 96 1015.8
20260903050300 21 102 0.0 0.0 0.00 0.05 0.00 96 1015.8
20260903050159 21 102 0.0 0.0 0.00 0.05 0.00 96 1015.7
20260903050118 21 102 0.0 0.0 0.00 0.05 0.00 96 1015.7
20260903050100 21 102 0.0 0.0 0.00 0.05 0.00 96 1015.8
20260903050020 21 102 0.0 0.0 0.00 0.05 0.00 95 1015.9
20260903045958 21 102 0.0 0.0 0.00 0.05 0.00 95 1015.8
20260903045924 21 102 0.0 0.0 0.00 0.05 0.00 95 1015.9
20260903045859 21 102 0.0 0.0 0.00 0.05 0.00 95 1015.8
20260903045826 21 102 0.0 0.0 0.00 0.05 0.00 95 1015.9
20260903045820 21 102 0.0 0.0 0.00 0.05 0.00 95 1015.9
20260903045811 21 102 0.0 0.0 0.00 0.05 0.00 95 1015.9
20260903045520 21 102 0.0 0.0 0.00 0.05 0.00 96 1016.0
20260903045455 21 102 0.0 0.0 0.00 0.05 0.00 96 1015.9
20260903045355 21 102 0.0 0.0 0.00 0.05 0.00 96 1015.9
20260903045256 21 102 0.0 0.0 0.00 0.05 0.00 96 1015.9
20260903045154 21 102 0.0 0.0 0.00 0.05 0.00 95 1015.8
20260903045117 21 102 0.0 0.0 0.00 0.05 0.00 96 1015.8
20260903045054 21 102 0.0 0.0 0.00 0.05 0.00 96 1015.7
20260903045020 21 102 0.0 0.0 0.00 0.05 0.00 95 1015.8
20260903045012 21 102 0.0 0.0 0.00 0.05 0.00 95 1015.7
20260903045008 21 102 0.0 0.0 0.00 0.05 0.00 95 1015.7
20260903044752 21 102 0.0 0.0 0.00 0.05 0.00 95 1015.7
20260903044723 21 102 0.0 0.0 0.00 0.05 0.00 95 1015.7
20260903044719 21 102 0.0 0.0 0.00 0.05 0.00 96 1015.7
20260903044705 21 102 0.0 0.0 0.00 0.05 0.00 95 1015.7
20260903044520 21 102 0.0 0.0 0.00 0.05 0.00 96 1015.8
20260903044349 21 102 0.0 0.0 0.00 0.05 0.00 96 1015.7
20260903044249 21 102 0.0 0.0 0.00 0.05 0.00 96 1015.6
20260903044148 21 102 0.0 0.0 0.00 0.05 0.00 96 1015.6
20260903044117 21 102 0.0 0.0 0.00 0.05 0.00 96 1015.6
20260903044100 21 102 0.0 0.0 0.00 0.05 0.00 95 1015.5
20260903044056 21 102 0.0 0.0 0.00 0.05 0.00 95 1015.5
20260903044020 21 102 0.0 0.0 0.00 0.05 0.00 95 1015.6
20260903043847 21 102 0.0 0.0 0.00 0.05 0.00 95 1015.5
20260903043835 21 102 0.0 0.0 0.00 0.05 0.00 95 1015.3
20260903043746 21 102 0.0 0.0 0.00 0.05 0.00 95 1015.4
20260903043722 21 102 0.0 0.0 0.00 0.05 0.00 95 1015.3
20260903043545 21 102 0.0 0.0 0.00 0.05 0.00 95 1015.3
20260903043520 21 102 0.0 0.0 0.00 0.05 0.00 95 1015.3
20260903043444 21 102 0.0 0.0 0.00 0.05 0.00 95 1015.2
20260903043344 21 102 0.0 0.0 0.00 0.05 0.00 95 1015.2
20260903043244 21 102 0.0 0.0 0.00 0.05 0.00 95 1015.3
20260903043114 21 102 0.0 0.0 0.00 0.05 0.00 95 1015.2
20260903043043 21 102 0.0 0.0 0.00 0.05 0.00 95 1015.2
20260903043020 21 102 0.0 0.0 0.00 0.05 0.00 95 1015.4
20260903043008 21 102 0.0 0.0 0.00 0.05 0.00 95 1015.3
20260903042855 21 117 0.0 0.0 0.00 0.05 0.00 95 1015.3
20260903042850 21 102 0.0 0.0 0.00 0.05 0.00 95 1015.3
20260903042720 21 109 0.0 0.0 0.00 0.05 0.00 95 1015.3
20260903042540 21 104 0.0 0.0 0.00 0.05 0.00 95 1015.4
20260903042520 21 104 0.0 0.0 0.00 0.05 0.00 95 1015.5
20260903042439 21 104 0.0 0.0 0.00 0.05 0.00 95 1015.4
20260903042339 21 104 0.0 0.0 0.00 0.05 0.00 95 1015.5
20260903042238 21 104 0.0 0.0 0.00 0.05 0.00 95 1015.6
20260903042111 21 104 0.0 0.0 0.00 0.05 0.00 95 1015.6
20260903042104 21 104 0.0 0.0 0.00 0.05 0.00 95 1015.5
20260903042058 21 104 0.0 0.0 0.00 0.05 0.00 95 1015.5
20260903042054 21 104 0.0 0.0 0.00 0.05 0.00 95 1015.6
20260903042020 21 104 0.0 0.0 0.00 0.05 0.00 95 1015.6
20260903041735 21 104 0.0 0.0 0.00 0.05 0.00 95 1015.5
20260903041611 21 104 0.0 0.0 0.00 0.05 0.00 95 1015.5
20260903041535 21 104 0.0 0.0 0.00 0.05 0.00 95 1015.5
20260903041520 21 104 0.0 0.0 0.00 0.05 0.00 95 1015.6
20260903041434 21 104 0.0 0.0 0.00 0.05 0.00 95 1015.5
20260903041334 21 104 0.0 0.0 0.00 0.05 0.00 95 1015.4
20260903041234 21 104 0.0 0.0 0.00 0.05 0.00 95 1015.5
20260903041152 21 104 0.0 0.0 0.00 0.05 0.00 95 1015.5
20260903041041 21 104 0.0 0.0 0.00 0.05 0.00 95 1015.4
20260903041020 21 104 0.0 0.0 0.00 0.05 0.00 95 1015.5
20260903040831 21 104 0.0 0.0 0.00 0.05 0.00 95 1015.4
20260903040730 21 104 0.0 0.0 0.00 0.05 0.00 95 1015.4
20260903040630 21 104 0.0 0.0 0.00 0.05 0.00 95 1015.5
20260903040611 21 103 0.0 0.0 0.00 0.05 0.00 95 1015.5
20260903040550 21 84 0.0 0.0 0.00 0.05 0.00 95 1015.6
20260903040529 21 91 0.0 0.0 0.00 0.05 0.00 95 1015.5
20260903040429 21 84 0.0 0.0 0.00 0.05 0.00 95 1015.5
20260903040328 21 84 0.0 0.0 0.00 0.05 0.00 95 1015.5
20260903040228 21 84 0.0 0.0 0.00 0.05 0.00 95 1015.6
20260903040111 21 84 0.0 0.0 0.00 0.05 0.00 95 1015.6
20260903040027 21 83 0.0 0.0 0.00 0.05 0.00 95 1015.6
20260903040020 21 83 0.0 0.0 0.00 0.05 0.00 95 1015.6
20260903035927 21 83 0.0 0.0 0.00 0.05 0.05 95 1015.5
20260903035824 21 83 0.0 0.0 0.00 0.05 0.05 95 1015.6
20260903035724 21 83 0.0 0.0 0.00 0.05 0.05 95 1015.5
20260903035610 21 84 0.0 0.0 0.00 0.05 0.05 95 1015.5
20260903035522 21 84 0.0 0.0 0.00 0.05 0.05 95 1015.7
20260903035520 21 84 0.0 0.0 0.00 0.05 0.05 95 1015.9
20260903035422 21 84 0.0 0.0 0.00 0.05 0.05 95 1015.8
20260903035354 21 84 0.0 0.0 0.00 0.05 0.05 95 1015.9
20260903035322 21 84 0.0 0.0 0.00 0.05 0.05 95 1015.8
20260903035249 21 84 0.0 0.0 0.00 0.05 0.05 95 1016.0
20260903035244 21 84 0.0 0.0 0.00 0.05 0.05 95 1015.9
20260903035235 21 84 0.0 0.0 0.00 0.05 0.05 95 1015.9
20260903035020 21 84 0.0 0.0 0.00 0.05 0.05 95 1016.1
20260903034920 21 84 0.0 0.0 0.00 0.05 0.05 95 1016.0
20260903034820 21 84 0.0 0.0 0.00 0.05 0.05 95 1016.0
20260903034719 21 84 0.0 0.0 0.00 0.05 0.05 95 1016.1
20260903034609 21 84 0.0 0.0 0.00 0.05 0.05 95 1016.0
20260903034541 21 84 0.0 0.0 0.00 0.05 0.05 95 1016.0
20260903034520 21 84 0.0 0.0 0.00 0.05 0.05 95 1016.2
20260903034428 21 84 0.0 0.0 0.00 0.05 0.05 95 1016.1
20260903034217 21 84 0.0 0.0 0.00 0.05 0.05 95 1016.1
20260903034135 21 84 0.0 0.0 0.00 0.05 0.05 95 1016.1
20260903034123 21 84 0.0 0.0 0.00 0.05 0.05 95 1016.0
20260903034020 21 84 0.0 0.0 0.00 0.05 0.05 95 1016.1
20260903033916 21 84 0.0 0.0 0.00 0.05 0.05 95 1016.0
20260903033815 21 84 0.0 0.0 0.00 0.05 0.05 95 1016.0
20260903033715 21 84 0.0 0.0 0.00 0.05 0.05 95 1015.9
20260903033607 21 84 0.0 0.0 0.00 0.05 0.05 95 1016.0
20260903033520 21 84 0.0 0.0 0.00 0.05 0.05 95 1016.1
20260903033514 21 84 0.0 0.0 0.00 0.05 0.05 95 1016.0
20260903033413 21 84 0.0 0.0 0.00 0.05 0.05 95 1016.0
20260903033313 21 84 0.0 0.0 0.00 0.05 0.05 95 1016.0
20260903033212 21 84 0.0 0.0 0.00 0.05 0.05 95 1015.9
20260903033108 21 84 0.0 0.0 0.00 0.05 0.05 95 1015.9
20260903033020 21 72 0.0 0.0 0.00 0.05 0.05 95 1015.9
20260903033011 21 72 0.0 0.0 0.00 0.05 0.05 95 1015.9
20260903032910 21 72 0.0 0.0 0.00 0.05 0.05 95 1015.8
20260903032810 21 72 0.0 0.0 0.00 0.05 0.05 95 1015.8
20260903032709 21 69 0.0 0.0 0.00 0.05 0.05 95 1015.9
20260903032610 21 70 0.0 0.0 0.00 0.05 0.05 95 1015.8
20260903032520 21 65 0.0 0.0 0.00 0.05 0.05 95 1016.0
20260903032508 21 65 0.0 0.0 0.00 0.05 0.05 95 1015.9
20260903032420 21 112 0.0 0.0 0.00 0.05 0.05 95 1015.8
20260903032416 21 88 0.0 0.0 0.00 0.05 0.05 95 1015.9
20260903032206 21 112 0.0 0.0 0.00 0.05 0.05 95 1015.7
20260903032106 21 112 0.0 0.0 0.00 0.05 0.05 95 1015.7
20260903032020 21 112 0.0 0.0 0.00 0.05 0.05 95 1015.8
20260903032005 21 112 0.0 0.0 0.00 0.05 0.05 95 1015.7
20260903031918 21 112 0.0 0.0 0.00 0.05 0.05 95 1015.7
20260903031914 21 112 0.0 0.0 0.00 0.05 0.05 95 1015.6
20260903031704 21 40 0.0 0.0 0.00 0.05 0.05 95 1015.7
20260903031604 21 40 0.0 0.0 0.00 0.05 0.05 95 1015.7
20260903031530 21 40 0.0 0.0 0.00 0.05 0.05 95 1015.6
20260903031525 21 40 0.0 0.0 0.00 0.05 0.05 95 1015.6
20260903031520 21 40 0.0 0.0 0.00 0.05 0.05 95 1015.8
20260903031202 21 40 0.0 0.0 0.00 0.05 0.05 95 1015.6
20260903031107 21 40 0.0 0.0 0.00 0.05 0.05 95 1015.5
20260903031101 21 40 0.0 0.0 0.00 0.05 0.05 95 1015.5
20260903031021 21 69 0.0 0.0 0.00 0.05 0.05 95 1015.6
20260903031001 21 78 0.0 0.0 0.00 0.05 0.05 95 1015.5
20260903030913 21 119 0.0 0.0 0.00 0.05 0.05 95 1015.5
20260903030909 21 119 0.0 0.0 0.00 0.05 0.05 95 1015.5
20260903030700 21 119 0.0 0.0 0.00 0.05 0.05 95 1015.5
20260903030605 21 94 0.0 0.0 0.00 0.05 0.05 95 1015.4
20260903030559 21 94 0.0 0.0 0.00 0.05 0.05 95 1015.4
20260903030520 21 94 0.0 0.0 0.00 0.05 0.05 95 1015.5
20260903030511 21 107 0.0 0.0 0.00 0.05 0.05 95 1015.4
20260903030507 21 94 0.0 0.0 0.00 0.05 0.05 95 1015.4
20260903030256 21 107 0.0 0.0 0.00 0.05 0.05 95 1015.4
20260903030156 21 107 0.0 0.0 0.00 0.05 0.05 95 1015.4
20260903030105 21 107 0.0 0.0 0.00 0.05 0.05 95 1015.4
20260903030055 21 107 0.0 0.0 0.00 0.05 0.05 95 1015.4
20260903030020 21 96 0.0 0.0 0.00 0.05 0.05 95 1015.5
20260903025955 21 96 0.0 0.0 0.00 0.05 0.05 95 1015.4
20260903025853 21 137 0.0 0.0 0.00 0.05 0.05 95 1015.4
20260903025752 21 126 0.0 0.0 0.00 0.05 0.05 95 1015.4
20260903025651 21 141 0.0 0.0 0.00 0.05 0.05 95 1015.4
20260903025604 21 141 0.0 0.0 0.00 0.05 0.05 95 1015.4
20260903025550 21 141 0.0 0.0 0.00 0.05 0.05 95 1015.4
20260903025520 21 141 0.0 0.0 0.00 0.05 0.05 95 1015.5
20260903025449 21 141 0.0 0.0 0.00 0.05 0.05 95 1015.4
20260903025347 21 141 0.0 0.0 0.00 0.05 0.05 95 1015.5
20260903025323 21 163 0.0 0.0 0.00 0.05 0.05 95 1015.6
20260903025247 21 141 0.0 0.0 0.00 0.05 0.05 95 1015.5
20260903025212 21 148 0.0 0.0 0.00 0.05 0.05 95 1015.5
20260903025046 21 163 0.0 0.0 0.00 0.05 0.05 95 1015.6
20260903025020 21 163 0.0 0.0 0.00 0.05 0.05 95 1015.6
20260903024958 21 163 0.0 0.0 0.00 0.05 0.05 95 1015.5
20260903024954 21 163 0.0 0.0 0.00 0.05 0.05 95 1015.5
20260903024823 21 96 0.0 0.0 0.00 0.05 0.05 95 1015.5
20260903024745 21 163 0.0 0.0 0.00 0.05 0.05 95 1015.6
20260903024710 21 163 0.0 0.0 0.00 0.05 0.05 95 1015.5
20260903024545 21 96 0.0 0.0 0.00 0.05 0.05 95 1015.5
20260903024521 21 96 0.0 0.0 0.00 0.05 0.05 95 1015.7
20260903024444 21 96 0.0 0.0 0.00 0.05 0.05 95 1015.6
20260903024356 21 106 0.0 0.0 0.00 0.05 0.05 95 1015.6
20260903024352 21 96 0.0 0.0 0.00 0.05 0.05 95 1015.5
20260903024141 21 106 0.0 0.0 0.00 0.05 0.05 95 1015.6
20260903024040 21 106 0.0 0.0 0.00 0.05 0.05 95 1015.6
20260903024020 21 106 0.0 0.0 0.00 0.05 0.05 95 1015.7
20260903023941 21 106 0.0 0.0 0.00 0.05 0.05 95 1015.6
20260903023928 21 106 0.0 0.0 0.00 0.05 0.05 95 1015.6
20260903023739 21 96 0.0 0.0 0.00 0.05 0.05 95 1015.6
20260903023710 21 96 0.0 0.0 0.00 0.05 0.05 95 1015.6
20260903023537 21 96 0.0 0.0 0.00 0.05 0.05 95 1015.7
20260903023520 21 96 0.0 0.0 0.00 0.05 0.05 95 1015.8
20260903023437 21 95 0.0 0.0 0.00 0.05 0.05 95 1015.7
20260903023336 21 95 0.0 0.0 0.00 0.05 0.05 95 1015.7
20260903023236 21 95 0.0 0.0 0.00 0.05 0.05 95 1015.7
20260903023136 21 95 0.0 0.0 0.00 0.05 0.05 95 1015.8
20260903023035 21 95 0.0 0.0 0.00 0.05 0.05 95 1015.8
20260903023020 21 95 0.0 0.0 0.00 0.05 0.05 95 1015.9
20260903022938 21 95 0.0 0.0 0.00 0.05 0.05 95 1015.8
20260903022929 21 104 0.0 0.0 0.00 0.05 0.05 95 1015.8
20260903022734 21 104 0.0 0.0 0.00 0.05 0.05 95 1015.9
20260903022708 21 104 0.0 0.0 0.00 0.05 0.05 95 1015.8
20260903022533 21 75 0.0 0.0 0.00 0.05 0.05 95 1015.8
20260903022520 21 62 0.0 0.0 0.00 0.05 0.05 95 1015.8
20260903022430 21 63 0.0 0.0 0.00 0.05 0.05 95 1015.7
20260903022330 21 98 0.0 0.0 0.00 0.05 0.05 95 1015.6
20260903022230 21 93 0.0 0.0 0.00 0.05 0.05 95 1015.6
20260903022129 21 98 0.0 0.0 0.00 0.05 0.05 95 1015.6
20260903022059 21 94 0.0 0.0 0.00 0.05 0.05 95 1015.6
20260903022030 21 86 0.0 0.0 0.00 0.05 0.05 95 1015.6
20260903022021 21 88 0.0 0.0 0.00 0.05 0.05 95 1015.7
20260903021944 21 75 0.0 0.0 0.00 0.05 0.05 95 1015.6
20260903021938 21 75 0.0 0.0 0.00 0.05 0.05 95 1015.6
20260903021818 21 84 0.0 0.0 0.00 0.05 0.05 95 1015.4
20260903021729 21 76 0.0 0.0 0.00 0.05 0.05 95 1015.6
20260903021705 21 111 0.0 0.0 0.00 0.05 0.05 95 1015.5
20260903021528 21 95 0.0 0.0 0.00 0.05 0.05 95 1015.4
20260903021520 21 95 0.0 0.0 0.00 0.05 0.05 95 1015.6
20260903021427 21 90 0.0 0.0 0.00 0.05 0.05 95 1015.5
20260903021327 21 94 0.0 0.0 0.00 0.05 0.05 95 1015.5
20260903021226 21 103 0.0 0.0 0.00 0.05 0.05 95 1015.7
20260903021140 21 103 0.0 0.0 0.00 0.05 0.05 95 1015.8
20260903021132 21 103 0.0 0.0 0.00 0.05 0.05 95 1015.9
20260903021020 21 103 0.0 0.0 0.00 0.05 0.05 95 1016.0
20260903020925 21 103 0.0 0.0 0.00 0.05 0.05 95 1015.9
20260903020825 21 103 0.0 0.0 0.00 0.05 0.05 95 1015.9
20260903020723 21 103 0.0 0.0 0.00 0.05 0.05 95 1015.8
20260903020621 21 103 0.0 0.0 0.00 0.05 0.05 95 1015.7
20260903020556 21 103 0.0 0.0 0.00 0.05 0.05 95 1015.6
20260903020521 21 114 0.0 0.0 0.00 0.05 0.05 95 1015.6
20260903020420 21 115 0.0 0.0 0.00 0.05 0.05 95 1015.6
20260903020320 21 48 0.0 0.0 0.00 0.05 0.05 95 1015.5
20260903020219 21 120 0.0 0.0 0.00 0.05 0.05 95 1015.5
20260903020119 21 101 0.0 0.0 0.00 0.05 0.05 95 1015.4
20260903020056 21 120 0.0 0.0 0.00 0.05 0.05 95 1015.4
20260903020020 21 115 0.0 0.0 0.00 0.05 0.05 95 1015.5
20260903015916 21 103 0.0 0.0 0.00 0.05 0.05 95 1015.4
20260903015830 21 103 0.0 0.0 0.00 0.05 0.05 95 1015.4
20260903015825 21 103 0.0 0.0 0.00 0.05 0.05 95 1015.4
20260903015615 21 103 0.0 0.0 0.00 0.05 0.05 95 1015.4
20260903015555 21 103 0.0 0.0 0.00 0.05 0.05 95 1015.4
20260903015520 21 103 0.0 0.0 0.00 0.05 0.05 94 1015.5
20260903015514 21 103 0.0 0.0 0.00 0.05 0.05 94 1015.4
20260903015412 21 103 0.0 0.0 0.00 0.05 0.05 94 1015.4
20260903015312 21 103 0.0 0.0 0.00 0.05 0.05 95 1015.4
20260903015223 21 103 0.0 0.0 0.00 0.05 0.05 94 1015.4
20260903015219 21 103 0.0 0.0 0.00 0.05 0.05 94 1015.4
20260903015053 21 103 0.0 0.0 0.00 0.05 0.05 95 1015.4
20260903015020 21 103 0.0 0.0 0.00 0.05 0.05 94 1015.5
20260903015009 21 103 0.0 0.0 0.00 0.05 0.05 94 1015.4
20260903014909 21 103 0.0 0.0 0.00 0.05 0.05 95 1015.4
20260903014821 21 99 0.0 0.0 0.00 0.05 0.05 95 1015.2
20260903014817 21 113 0.0 0.0 0.00 0.05 0.05 94 1015.3
20260903014608 21 207 0.0 0.0 0.00 0.05 0.05 94 1015.1
20260903014555 21 207 0.0 0.0 0.00 0.05 0.05 95 1015.1
20260903014520 21 82 0.0 0.0 0.00 0.05 0.05 94 1015.3
20260903014507 21 82 0.0 0.0 0.00 0.05 0.05 94 1015.2
20260903014419 21 108 0.0 0.0 0.00 0.05 0.05 95 1015.2
20260903014415 21 108 0.0 0.0 0.00 0.05 0.05 95 1015.2
20260903014207 21 108 0.0 0.0 0.00 0.05 0.05 95 1015.2
20260903014106 21 108 0.0 0.0 0.00 0.05 0.05 95 1015.3
20260903014053 21 108 0.0 0.0 0.00 0.05 0.05 95 1015.3
20260903014020 21 114 0.0 0.0 0.00 0.05 0.05 95 1015.4
20260903014006 21 110 0.0 0.0 0.00 0.05 0.05 95 1015.3
20260903013905 21 100 0.0 0.0 0.00 0.05 0.05 95 1015.3
20260903013805 21 105 0.0 0.0 0.00 0.05 0.05 95 1015.4
20260903013718 21 134 0.0 0.0 0.00 0.05 0.05 95 1015.4
20260903013712 21 103 0.0 0.0 0.00 0.05 0.05 95 1015.4
20260903013553 21 134 0.0 0.0 0.00 0.05 0.05 95 1015.4
20260903013520 21 104 0.0 0.0 0.00 0.05 0.05 95 1015.5
20260903013504 21 104 0.0 0.0 0.00 0.05 0.05 95 1015.4
20260903013402 21 69 0.0 0.0 0.00 0.05 0.05 95 1015.4
20260903013301 21 69 0.0 0.0 0.00 0.05 0.05 95 1015.3
20260903013201 21 120 0.0 0.0 0.00 0.05 0.05 95 1015.3
20260903013101 21 121 0.0 0.0 0.00 0.05 0.05 95 1015.3
20260903013052 21 114 0.0 0.0 0.00 0.05 0.05 95 1015.3
20260903013020 21 51 0.0 0.0 0.00 0.05 0.05 95 1015.3
20260903013000 21 51 0.0 0.0 0.00 0.05 0.05 95 1015.2
20260903012900 21 110 0.0 0.0 0.00 0.05 0.05 95 1015.2
20260903012759 21 123 0.0 0.0 0.00 0.05 0.05 95 1015.3
20260903012658 21 109 0.0 0.0 0.00 0.05 0.05 94 1015.3
20260903012551 21 104 0.0 0.0 0.00 0.05 0.05 94 1015.3
20260903012540 21 112 0.0 0.0 0.00 0.05 0.05 94 1015.4
20260903012535 21 107 0.0 0.0 0.00 0.05 0.05 94 1015.4
20260903012530 21 110 0.0 0.0 0.00 0.05 0.05 94 1015.3
20260903012525 21 109 0.0 0.0 0.00 0.05 0.05 94 1015.4
20260903012520 21 108 0.0 0.0 0.00 0.05 0.05 94 1015.5
20260903012049 21 103 0.0 0.0 0.00 0.05 0.05 94 1015.3
20260903012020 21 103 0.0 0.0 0.00 0.05 0.05 94 1015.5
20260903011957 21 103 0.0 0.0 0.00 0.05 0.05 94 1015.4
20260903011856 21 102 0.0 0.0 0.00 0.05 0.05 94 1015.4
20260903011756 21 103 0.0 0.0 0.00 0.05 0.05 94 1015.4
20260903011656 21 99 0.0 0.0 0.00 0.05 0.05 94 1015.4
20260903011615 21 107 0.0 0.0 0.00 0.05 0.05 94 1015.5
20260903011603 21 100 0.0 0.0 0.00 0.05 0.05 94 1015.5
20260903011535 21 107 0.0 0.0 0.00 0.05 0.05 94 1015.6
20260903011355 21 105 0.0 0.0 0.00 0.05 0.05 94 1015.5
20260903011317 21 103 0.0 0.0 0.00 0.05 0.05 94 1015.5
20260903011312 21 103 0.0 0.0 0.00 0.05 0.05 94 1015.6
20260903011303 21 102 0.0 0.0 0.00 0.05 0.05 94 1015.5
20260903011020 21 103 0.0 0.0 0.00 0.05 0.05 94 1015.7
20260903010952 21 103 0.0 0.0 0.00 0.05 0.05 94 1015.6
20260903010851 21 76 0.0 0.0 0.00 0.05 0.05 94 1015.6
20260903010750 21 76 0.0 0.0 0.00 0.05 0.05 94 1015.6
20260903010707 21 108 0.0 0.0 0.00 0.05 0.05 94 1015.7
20260903010701 21 76 0.0 0.0 0.00 0.05 0.05 94 1015.7
20260903010545 21 108 0.0 0.0 0.00 0.05 0.05 94 1015.7
20260903010520 21 124 0.0 0.0 0.00 0.05 0.05 94 1015.9
20260903010449 21 124 0.0 0.0 0.00 0.05 0.05 94 1015.8
20260903010349 21 124 0.0 0.0 0.00 0.05 0.05 94 1015.9
20260903010249 21 124 0.0 0.0 0.00 0.05 0.05 94 1015.8
20260903010147 21 124 0.0 0.0 0.00 0.05 0.05 94 1015.8
20260903010107 21 110 0.0 0.0 0.00 0.05 0.05 94 1015.9
20260903010054 21 124 0.0 0.0 0.00 0.05 0.05 94 1015.8
20260903010035 21 128 0.0 0.0 0.00 0.05 0.05 94 1016.0
20260903005845 21 92 0.0 0.0 0.00 0.05 0.05 94 1015.8
20260903005745 21 140 0.0 0.0 0.00 0.05 0.05 94 1015.8
20260903005645 21 64 0.0 0.0 0.00 0.05 0.05 94 1015.9
20260903005546 21 64 0.0 0.0 0.00 0.05 0.05 94 1015.9
20260903005521 21 64 0.0 0.0 0.00 0.05 0.05 94 1015.9
20260903005444 21 60 0.0 0.0 0.00 0.05 0.05 94 1015.8
20260903005342 21 64 0.0 0.0 0.00 0.05 0.05 94 1015.7
20260903005240 21 106 0.0 0.0 0.00 0.05 0.05 94 1015.7
20260903005140 21 82 0.0 0.0 0.00 0.05 0.05 94 1015.7
20260903005050 21 78 0.0 0.0 0.00 0.05 0.05 94 1015.8
20260903005040 21 78 0.0 0.0 0.00 0.05 0.05 94 1015.7
20260903004939 21 78 0.0 0.0 0.00 0.05 0.05 94 1015.7
20260903004839 21 78 0.0 0.0 0.00 0.05 0.05 94 1015.7
20260903004738 21 78 0.0 0.0 0.00 0.05 0.05 94 1015.7
20260903004638 21 80 0.0 0.0 0.00 0.05 0.05 94 1015.8
20260903004557 21 80 0.0 0.0 0.00 0.05 0.05 94 1015.8
20260903004546 21 80 0.0 0.0 0.00 0.05 0.05 94 1015.8
20260903004520 21 80 0.0 0.0 0.00 0.05 0.05 94 1015.9
20260903004404 21 79 0.0 0.0 0.00 0.05 0.05 94 1015.9
20260903004359 21 90 0.0 0.0 0.00 0.05 0.05 94 1015.8
20260903004354 21 79 0.0 0.0 0.00 0.05 0.05 94 1015.9
20260903004035 21 90 0.0 0.0 0.00 0.05 0.05 94 1015.8
20260903004020 21 90 0.0 0.0 0.00 0.05 0.05 94 1015.8
20260903003935 21 90 0.0 0.0 0.00 0.05 0.05 94 1015.7
20260903003834 21 90 0.0 0.0 0.00 0.05 0.05 94 1015.7
20260903003733 21 90 0.0 0.0 0.00 0.05 0.05 94 1015.7
20260903003632 21 90 0.0 0.0 0.00 0.05 0.05 94 1015.7
20260903003535 21 80 0.0 0.0 0.00 0.05 0.05 94 1015.9
20260903003532 21 90 0.0 0.0 0.00 0.05 0.05 94 1015.8
20260903003432 21 80 0.0 0.0 0.00 0.05 0.05 94 1015.8
20260903003331 21 80 0.0 0.0 0.00 0.05 0.05 94 1015.8
20260903003232 21 80 0.0 0.0 0.00 0.05 0.05 94 1015.7
20260903003132 21 80 0.0 0.0 0.00 0.05 0.05 94 1015.7
20260903003031 21 87 0.0 0.0 0.00 0.05 0.05 94 1015.6
20260903003020 21 88 0.0 0.0 0.00 0.05 0.05 94 1015.7
20260903002932 21 89 0.0 0.0 0.00 0.05 0.05 94 1015.6
20260903002830 21 95 0.0 0.0 0.00 0.05 0.05 94 1015.5
20260903002818 21 69 0.0 0.0 0.00 0.08 0.05 94 1015.4
20260903002729 21 80 0.0 0.0 0.00 0.05 0.05 94 1015.5
20260903002706 21 84 0.0 0.0 0.00 0.08 0.05 94 1015.5
20260903002552 21 69 0.0 0.0 0.00 0.08 0.05 94 1015.4
20260903002520 21 70 0.0 0.0 0.00 0.08 0.05 94 1015.6
20260903002438 21 70 0.0 0.0 0.00 0.08 0.05 94 1015.5
20260903002242 21 76 0.0 0.0 0.00 0.20 0.05 94 1015.5
20260903002236 21 67 0.0 0.0 0.00 0.15 0.05 94 1015.5
20260903002027 21 76 0.0 0.0 0.00 0.25 0.05 94 1015.5
20260903002020 21 76 0.0 0.0 0.00 0.23 0.05 94 1015.5
20260903001926 21 76 0.0 0.0 0.00 0.30 0.05 94 1015.4
20260903001826 21 76 0.0 0.0 0.00 0.36 0.05 94 1015.4
20260903001726 21 94 0.0 0.0 0.00 0.41 0.05 94 1015.4
20260903001623 21 96 0.0 0.0 0.00 0.43 0.05 94 1015.4
20260903001535 21 96 0.0 0.0 0.00 0.43 0.05 94 1015.4
20260903001524 21 96 0.0 0.0 0.00 0.46 0.05 94 1015.4
20260903001520 21 96 0.0 0.0 0.00 0.43 0.05 94 1015.4
20260903001423 21 96 0.0 0.0 0.00 0.51 0.05 94 1015.3
20260903001322 21 96 0.0 0.0 0.00 0.51 0.05 94 1015.4
20260903001222 21 96 0.0 0.0 0.00 0.53 0.05 94 1015.3
20260903001119 21 96 0.0 0.0 0.00 0.56 0.05 94 1015.3
20260903001020 21 96 0.0 0.0 0.00 0.56 0.05 94 1015.4
20260903000919 21 84 0.0 0.0 0.00 0.61 0.05 94 1015.3
20260903000817 21 80 0.0 0.0 0.00 0.64 0.05 94 1015.3
20260903000717 21 80 0.0 0.0 0.00 0.66 0.05 94 1015.3
20260903000617 21 76 0.0 0.0 0.00 0.66 0.05 94 1015.4
20260903000520 21 76 0.0 0.0 0.00 0.66 0.05 94 1015.4
20260903000516 21 76 0.0 0.0 0.00 0.66 0.05 94 1015.3
20260903000417 21 76 0.0 0.0 0.00 0.69 0.05 94 1015.3
20260903000317 21 73 0.0 0.0 0.00 0.69 0.05 94 1015.3
20260903000215 21 90 0.0 0.0 0.00 0.69 0.05 94 1015.3
20260903000115 21 91 0.0 0.0 0.00 0.71 0.05 94 1015.3
20260903000035 21 91 0.0 0.0 0.00 0.71 0.05 94 1015.4
20260903000023 21 91 0.0 0.0 0.00 0.71 0.05 94 1015.3
20260902235843 21 91 0.0 0.0 0.00 0.71 0.05 94 1015.2
20260902235739 21 91 0.0 0.0 0.00 0.71 0.05 94 1015.2
20260902235733 21 91 0.0 0.0 0.00 0.71 0.05 94 1015.3
20260902235724 21 91 0.0 0.0 0.00 0.71 0.05 94 1015.3
20260902235550 21 91 0.0 0.0 0.00 0.71 0.05 94 1015.3
20260902235409 21 91 0.0 0.0 0.00 0.71 0.05 94 1015.2
20260902235309 21 92 0.0 0.0 0.00 0.71 0.05 94 1015.2
20260902235209 21 91 0.0 0.0 0.00 0.71 0.05 94 1015.2
20260902235106 21 91 0.0 0.0 0.00 0.71 0.05 94 1015.2
20260902235035 21 95 0.0 0.0 0.00 0.71 0.05 94 1015.2
20260902235027 21 95 0.0 0.0 0.00 0.71 0.05 94 1015.2
20260902235006 21 95 0.0 0.0 0.00 0.71 0.05 94 1015.1
20260902234905 21 95 0.0 0.0 0.00 0.71 0.05 94 1015.1
20260902234805 21 94 0.0 0.0 0.00 0.71 0.05 94 1015.0
20260902234705 21 103 0.0 0.0 0.00 0.71 0.05 94 1015.0
20260902234604 21 104 0.0 0.0 0.00 0.71 0.05 94 1015.0
20260902234535 21 104 0.0 0.0 0.00 0.71 0.05 94 1015.1
20260902234505 21 104 0.0 0.0 0.00 0.71 0.05 94 1015.0
20260902234404 21 104 0.0 0.0 0.00 0.71 0.05 94 1015.0
20260902234303 21 104 0.0 0.0 0.00 0.71 0.05 94 1015.0
20260902234203 21 104 0.0 0.0 0.00 0.71 0.05 94 1015.1
20260902234103 21 104 0.0 0.0 0.00 0.71 0.05 94 1015.1
20260902234035 21 104 0.0 0.0 0.00 0.71 0.05 94 1015.2
20260902234026 21 104 0.0 0.0 0.00 0.71 0.05 94 1015.1
20260902234003 21 104 0.0 0.0 0.00 0.71 0.05 94 1015.1
20260902233929 21 104 0.0 0.0 0.00 0.71 0.05 94 1015.2
20260902233925 21 104 0.0 0.0 0.00 0.71 0.05 94 1015.2
20260902233920 21 104 0.0 0.0 0.00 0.71 0.05 94 1015.2
20260902233601 21 104 0.0 0.0 0.00 0.71 0.05 94 1015.2
20260902233535 21 104 0.0 0.0 0.00 0.71 0.05 94 1015.3
20260902233524 21 104 0.0 0.0 0.00 0.71 0.05 94 1015.2
20260902233501 21 104 0.0 0.0 0.00 0.71 0.05 94 1015.2
20260902233406 21 104 0.0 0.0 0.00 0.71 0.05 94 1015.2
20260902233400 21 104 0.0 0.0 0.00 0.71 0.05 94 1015.2
20260902233311 21 104 0.0 0.0 0.00 0.71 0.05 94 1015.2
20260902233305 21 104 0.0 0.0 0.00 0.71 0.05 94 1015.3
20260902233256 21 104 0.0 0.0 0.00 0.71 0.05 94 1015.2
20260902233248 21 104 0.0 0.0 0.00 0.71 0.05 94 1015.2
20260902233020 21 104 0.0 0.0 0.00 0.71 0.05 94 1015.3
20260902232920 21 76 0.0 0.0 0.00 0.71 0.05 94 1015.2
20260902232915 21 104 0.0 0.0 0.00 0.71 0.05 94 1015.3
20260902232616 21 103 0.0 0.0 0.00 0.71 0.05 94 1015.3
20260902232611 21 102 0.0 0.0 0.00 0.71 0.05 94 1015.2
20260902232602 21 103 0.0 0.0 0.00 0.71 0.05 94 1015.2
20260902232521 21 103 0.0 0.0 0.00 0.71 0.05 94 1015.4
20260902232355 21 105 0.0 0.0 0.00 0.71 0.05 94 1015.3
20260902232255 21 105 0.0 0.0 0.00 0.71 0.05 94 1015.3
20260902232155 21 105 0.0 0.0 0.00 0.71 0.05 94 1015.3
20260902232054 21 104 0.0 0.0 0.00 0.71 0.05 94 1015.3
20260902232020 21 104 0.0 0.0 0.00 0.71 0.05 94 1015.3
20260902231954 21 104 0.0 0.0 0.00 0.71 0.05 94 1015.2
20260902231853 21 104 0.0 0.0 0.00 0.71 0.05 94 1015.3
20260902231753 21 115 0.0 0.0 0.00 0.71 0.05 94 1015.2
20260902231653 21 118 0.0 0.0 0.00 0.71 0.05 94 1015.2
20260902231552 21 118 0.0 0.0 0.00 0.71 0.05 94 1015.2
20260902231520 21 122 0.0 0.0 0.00 0.71 0.05 94 1015.4
20260902231518 21 118 0.0 0.0 0.00 0.71 0.05 94 1015.2
20260902231452 21 132 0.0 0.0 0.00 0.71 0.05 94 1015.3
20260902231351 21 132 0.0 0.0 0.00 0.71 0.05 94 1015.3
20260902231305 21 113 0.0 0.0 0.00 0.71 0.05 94 1015.3
20260902231300 21 132 0.0 0.0 0.00 0.71 0.05 94 1015.3
20260902231109 21 74 0.0 0.0 0.00 0.71 0.05 94 1015.3
20260902231104 21 110 0.0 0.0 0.00 0.71 0.05 94 1015.3
20260902231056 21 74 0.0 0.0 0.00 0.71 0.05 94 1015.3
20260902231035 21 74 0.0 0.0 0.00 0.71 0.05 94 1015.4
20260902230849 21 66 0.0 0.0 0.00 0.71 0.05 94 1015.3
20260902230803 21 80 0.0 0.0 0.00 0.71 0.05 94 1015.3
20260902230757 21 79 0.0 0.0 0.00 0.71 0.05 94 1015.3
20260902230548 21 80 0.0 0.0 0.00 0.71 0.05 94 1015.3
20260902230520 21 80 0.0 0.0 0.00 0.71 0.05 94 1015.4
20260902230517 21 80 0.0 0.0 0.00 0.71 0.05 94 1015.3
20260902230447 21 80 0.0 0.0 0.00 0.71 0.05 94 1015.3
20260902230347 21 79 0.0 0.0 0.00 0.71 0.05 95 1015.2
20260902230247 21 82 0.0 0.0 0.00 0.71 0.05 95 1015.3
20260902230146 21 83 0.0 0.0 0.00 0.71 0.05 95 1015.2
20260902230046 21 83 0.0 0.0 0.00 0.71 0.05 94 1015.2
20260902230021 21 83 0.0 0.0 0.00 0.71 0.05 95 1015.2
20260902230014 21 83 0.0 0.0 0.00 0.71 0.05 95 1015.2
20260902225946 21 83 0.0 0.0 0.00 0.71 0.05 95 1015.1
20260902225845 21 83 0.0 0.0 0.00 0.71 0.05 95 1015.2
20260902225747 21 83 0.0 0.0 0.00 0.71 0.05 95 1015.2
20260902225657 21 103 0.0 0.0 0.00 0.71 0.05 95 1015.3
20260902225653 21 82 0.0 0.0 0.00 0.71 0.05 95 1015.2
20260902225520 21 105 0.0 0.0 0.00 0.71 0.05 95 1015.4
20260902225517 21 105 0.0 0.0 0.00 0.71 0.05 95 1015.3
20260902225511 21 105 0.0 0.0 0.00 0.71 0.05 95 1015.3
20260902225506 21 96 0.0 0.0 0.00 0.71 0.05 95 1015.3
20260902225502 21 105 0.0 0.0 0.00 0.71 0.05 95 1015.3
20260902225211 21 96 0.0 0.0 0.00 0.71 0.05 95 1015.3
20260902225049 21 96 0.0 0.0 0.00 0.71 0.05 95 1015.3
20260902225020 21 96 0.0 0.0 0.00 0.71 0.05 95 1015.4
20260902224842 21 93 0.0 0.0 0.00 0.71 0.05 95 1015.3
20260902224807 21 158 0.0 0.0 0.00 0.71 0.05 95 1015.4
20260902224803 21 158 0.0 0.0 0.00 0.71 0.05 95 1015.3
20260902224759 21 158 0.0 0.0 0.00 0.71 0.05 95 1015.3
20260902224535 21 107 0.0 0.0 0.00 0.71 0.05 95 1015.4
20260902224511 21 107 0.0 0.0 0.00 0.71 0.05 95 1015.3
20260902224440 21 107 0.0 0.0 0.00 0.71 0.05 95 1015.3
20260902224340 21 103 0.0 0.0 0.00 0.71 0.05 95 1015.3
20260902224252 21 92 0.0 0.0 0.00 0.71 0.05 95 1015.3
20260902224248 21 113 0.0 0.0 0.00 0.71 0.05 95 1015.3
20260902224039 21 101 0.0 0.0 0.00 0.71 0.05 95 1015.3
20260902224020 21 95 0.0 0.0 0.00 0.71 0.05 95 1015.5
20260902224009 21 94 0.0 0.0 0.00 0.71 0.05 95 1015.3
20260902223938 21 119 0.0 0.0 0.00 0.71 0.05 95 1015.4
20260902223838 21 125 0.0 0.0 0.00 0.71 0.05 95 1015.4
20260902223749 21 125 0.0 0.0 0.00 0.71 0.05 95 1015.4
20260902223745 21 125 0.0 0.0 0.00 0.71 0.05 95 1015.4
20260902223520 21 107 0.0 0.0 0.00 0.71 0.05 95 1015.5
20260902223510 21 107 0.0 0.0 0.00 0.71 0.05 95 1015.4
20260902223435 21 107 0.0 0.0 0.00 0.71 0.05 95 1015.4
20260902223336 21 107 0.0 0.0 0.00 0.71 0.05 95 1015.4
20260902223235 21 107 0.0 0.0 0.00 0.71 0.05 95 1015.5
20260902223208 21 107 0.0 0.0 0.00 0.71 0.05 95 1015.6
20260902223204 21 107 0.0 0.0 0.00 0.71 0.05 95 1015.6
20260902223159 21 107 0.0 0.0 0.00 0.71 0.05 95 1015.5
20260902223042 21 107 0.0 0.0 0.00 0.71 0.05 95 1015.6
20260902223020 21 107 0.0 0.0 0.00 0.71 0.05 95 1015.7
20260902222835 21 107 0.0 0.0 0.00 0.71 0.05 95 1015.6
20260902222733 21 93 0.0 0.0 0.00 0.71 0.05 95 1015.6
20260902222633 21 115 0.0 0.0 0.00 0.71 0.05 95 1015.6
20260902222533 21 126 0.0 0.0 0.00 0.71 0.05 95 1015.6
20260902222520 21 109 0.0 0.0 0.00 0.71 0.05 95 1015.8
20260902222508 21 109 0.0 0.0 0.00 0.71 0.05 95 1015.6
20260902222458 21 71 0.0 0.0 0.00 0.71 0.05 95 1015.7
20260902222454 21 70 0.0 0.0 0.00 0.71 0.05 95 1015.6
20260902222449 21 82 0.0 0.0 0.00 0.71 0.05 95 1015.7
20260902222131 21 99 0.0 0.0 0.00 0.71 0.05 95 1015.6
20260902222049 21 67 0.0 0.0 0.00 0.71 0.05 95 1015.6
20260902222045 21 96 0.0 0.0 0.00 0.71 0.05 95 1015.6
20260902222037 21 90 0.0 0.0 0.00 0.71 0.05 95 1015.6
20260902222020 21 90 0.0 0.0 0.00 0.71 0.05 95 1015.7
20260902221830 21 83 0.0 0.0 0.00 0.71 0.05 95 1015.6
20260902221730 21 93 0.0 0.0 0.00 0.71 0.05 95 1015.6
20260902221654 21 101 0.0 0.0 0.00 0.71 0.05 94 1015.6
20260902221541 21 101 0.0 0.0 0.00 0.71 0.05 94 1015.5
20260902221533 21 101 0.0 0.0 0.00 0.71 0.05 94 1015.6
20260902221520 21 101 0.0 0.0 0.00 0.71 0.05 94 1015.7
20260902221326 21 86 0.0 0.0 0.00 0.71 0.05 95 1015.6
20260902221226 21 103 0.0 0.0 0.00 0.71 0.05 95 1015.6
20260902221124 21 77 0.0 0.0 0.00 0.71 0.05 95 1015.6
20260902221043 21 140 0.0 0.0 0.00 0.71 0.05 95 1015.7
20260902221039 21 94 0.0 0.0 0.00 0.71 0.05 95 1015.7
20260902221031 21 125 0.0 0.0 0.00 0.71 0.05 95 1015.7
20260902221021 21 125 0.0 0.0 0.00 0.71 0.05 95 1015.8
20260902220822 21 98 0.0 0.0 0.00 0.71 0.05 95 1015.7
20260902220722 21 71 0.0 0.0 0.00 0.71 0.05 95 1015.9
20260902220623 21 71 0.0 0.0 0.00 0.71 0.05 95 1015.9
20260902220541 21 71 0.0 0.0 0.00 0.71 0.05 94 1016.0
20260902220520 21 71 0.0 0.0 0.00 0.71 0.05 94 1016.1
20260902220430 21 71 0.0 0.0 0.00 0.71 0.05 94 1016.0
20260902220235 21 84 0.0 0.0 0.00 0.71 0.05 95 1016.0
20260902220231 21 96 0.0 0.0 0.00 0.71 0.05 94 1016.0
20260902220021 21 71 0.0 0.0 0.00 0.71 0.05 95 1016.0
20260902220007 21 115 0.0 0.0 0.00 0.71 0.05 95 1016.0
20260902215920 21 115 0.0 0.0 0.00 0.71 0.05 95 1016.0
20260902215818 21 115 0.0 0.0 0.00 0.71 0.05 95 1015.9
20260902215718 21 115 0.0 0.0 0.00 0.71 0.05 95 1016.0
20260902215617 21 115 0.0 0.0 0.00 0.71 0.05 95 1016.0
20260902215520 21 113 0.0 0.0 0.00 0.71 0.05 94 1016.1
20260902215506 21 113 0.0 0.0 0.00 0.71 0.05 94 1016.0
20260902215416 21 113 0.0 0.0 0.00 0.71 0.05 94 1016.0
20260902215314 21 113 0.0 0.0 0.00 0.71 0.05 94 1016.1
20260902215213 21 113 0.0 0.0 0.00 0.71 0.05 94 1016.1
20260902215112 21 113 0.0 0.0 0.00 0.71 0.05 94 1016.1
20260902215020 21 118 0.0 0.0 0.00 0.71 0.05 94 1016.2
20260902215006 21 118 0.0 0.0 0.00 0.71 0.05 94 1016.1
20260902214911 21 118 0.0 0.0 0.00 0.71 0.05 94 1016.1
20260902214810 21 118 0.0 0.0 0.00 0.71 0.05 94 1016.1
20260902214710 21 118 0.0 0.0 0.00 0.71 0.05 94 1016.1
20260902214609 21 118 0.0 0.0 0.00 0.71 0.05 94 1016.1
20260902214520 22 109 0.0 0.0 0.00 0.71 0.05 95 1016.1
20260902214509 21 109 0.0 0.0 0.00 0.71 0.05 95 1016.0
20260902214408 21 109 0.0 0.0 0.00 0.71 0.05 95 1016.0
20260902214307 22 81 0.0 0.0 0.00 0.71 0.05 95 1016.0
20260902214207 22 67 0.0 0.0 0.00 0.71 0.05 95 1016.0
20260902214107 22 67 0.0 0.0 0.00 0.71 0.05 95 1015.9
20260902214020 22 48 0.0 0.0 0.00 0.71 0.05 95 1016.1
20260902214008 22 48 0.0 0.0 0.00 0.71 0.05 95 1016.0
20260902213907 22 72 0.0 0.0 0.00 0.71 0.05 95 1015.9
20260902213823 22 58 0.0 0.0 0.00 0.71 0.05 95 1015.8
20260902213818 22 139 0.0 0.0 0.00 0.71 0.05 95 1015.9
20260902213814 22 59 0.0 0.0 0.00 0.71 0.05 95 1015.8
20260902213619 22 139 0.0 0.0 0.00 0.71 0.05 95 1015.9
20260902213520 22 139 0.0 0.0 0.00 0.71 0.05 95 1016.0
20260902213505 22 139 0.0 0.0 0.00 0.71 0.05 95 1015.9
20260902213404 21 148 0.0 0.0 0.00 0.71 0.05 95 1015.9
20260902213304 22 149 0.0 0.0 0.00 0.71 0.05 95 1015.9
20260902213235 22 149 0.0 0.0 0.00 0.71 0.05 95 1015.8
20260902213231 21 149 0.0 0.0 0.00 0.71 0.05 95 1015.8
20260902213225 22 148 0.0 0.0 0.00 0.71 0.05 95 1015.9
20260902213107 21 149 0.0 0.0 0.00 0.71 0.05 95 1015.8
20260902213020 22 148 0.0 0.0 0.00 0.71 0.05 95 1015.9
20260902212901 21 149 0.0 0.0 0.00 0.71 0.05 95 1015.7
20260902212800 21 149 0.0 0.0 0.00 0.71 0.05 95 1015.6
20260902212659 22 149 0.0 0.0 0.00 0.71 0.05 95 1015.5
20260902212558 21 132 0.0 0.0 0.00 0.71 0.05 95 1015.4
20260902212520 22 132 0.0 0.0 0.00 0.71 0.05 95 1015.5
20260902212504 22 133 0.0 0.0 0.00 0.71 0.05 95 1015.4
20260902212458 22 123 0.0 0.0 0.00 0.71 0.05 95 1015.4
20260902212358 22 103 0.0 0.0 0.00 0.71 0.05 95 1015.4
20260902212257 22 103 0.0 0.0 0.00 0.71 0.05 95 1015.5
20260902212156 22 103 0.0 0.0 0.00 0.71 0.05 95 1015.5
20260902212056 22 101 0.0 0.0 0.00 0.71 0.05 95 1015.5
20260902212020 22 101 0.0 0.0 0.00 0.71 0.05 95 1015.6
20260902212003 22 101 0.0 0.0 0.00 0.71 0.05 95 1015.5
20260902211955 22 101 0.0 0.0 0.00 0.71 0.05 95 1015.5
20260902211855 22 92 0.0 0.0 0.00 0.71 0.05 95 1015.5
20260902211755 22 117 0.0 0.0 0.00 0.71 0.05 95 1015.5
20260902211655 22 118 0.0 0.0 0.00 0.71 0.05 95 1015.5
20260902211555 22 98 0.0 0.0 0.00 0.71 0.05 95 1015.5
20260902211520 22 98 0.0 0.0 0.00 0.71 0.05 95 1015.5
20260902211503 22 98 0.0 0.0 0.00 0.71 0.05 95 1015.4
20260902211454 21 98 0.0 0.0 0.00 0.71 0.05 95 1015.4
20260902211353 21 98 0.0 0.0 0.00 0.71 0.05 95 1015.4
20260902211253 21 98 0.0 0.0 0.00 0.71 0.05 95 1015.4
20260902211151 21 98 0.0 0.0 0.00 0.71 0.05 95 1015.3
20260902211049 21 81 0.0 0.0 0.00 0.71 0.05 95 1015.3
20260902211020 21 81 0.0 0.0 0.00 0.71 0.05 95 1015.4
20260902211003 21 81 0.0 0.0 0.00 0.71 0.05 95 1015.3
20260902210953 21 79 0.0 0.0 0.00 0.71 0.05 95 1015.1
20260902210948 21 81 0.0 0.0 0.00 0.71 0.05 95 1015.3
20260902210941 21 64 0.0 0.0 0.00 0.71 0.05 95 1015.1
20260902210935 21 81 0.0 0.0 0.00 0.71 0.05 95 1015.2
20260902210821 21 81 0.0 0.0 0.00 0.71 0.05 95 1015.2
20260902210703 21 96 0.0 0.0 0.00 0.71 0.05 95 1015.1
20260902210520 21 64 0.0 0.0 0.00 0.71 0.05 95 1015.2
20260902210348 21 44 0.0 0.0 0.00 0.71 0.05 95 1015.2
20260902210247 21 63 0.0 0.0 0.00 0.71 0.05 95 1015.2
20260902210146 21 104 0.0 0.0 0.00 0.71 0.05 95 1015.3
20260902210046 21 89 0.0 0.0 0.00 0.71 0.05 95 1015.2
20260902210026 21 101 0.0 0.0 0.00 0.71 0.05 95 1015.3
20260902210021 21 104 0.0 0.0 0.00 0.71 0.05 95 1015.2
20260902210015 21 104 0.0 0.0 0.00 0.71 0.05 95 1015.2
20260902205902 21 90 0.0 0.0 0.00 0.71 0.05 95 1015.4
20260902205858 21 109 0.0 0.0 0.00 0.71 0.05 95 1015.2
20260902205849 21 98 0.0 0.0 0.00 0.71 0.05 95 1015.2
20260902205626 21 101 0.0 0.0 0.00 0.71 0.05 95 1015.3
20260902205520 21 71 0.0 0.0 0.00 0.71 0.05 95 1015.5
20260902205512 21 90 0.0 0.0 0.00 0.71 0.05 95 1015.4
20260902205249 21 92 0.0 0.0 0.00 0.71 0.05 95 1015.4
20260902205108 21 96 0.0 0.0 0.00 0.71 0.05 95 1015.3
20260902205035 21 65 0.0 0.0 0.00 0.71 0.05 95 1015.3
20260902204940 21 65 0.0 0.0 0.00 0.71 0.05 95 1015.2
20260902204840 21 80 0.0 0.0 0.00 0.71 0.05 95 1015.2
20260902204738 21 85 0.0 0.0 0.00 0.71 0.05 95 1015.1
20260902204638 21 69 0.0 0.0 0.00 0.71 0.05 95 1015.1
20260902204538 21 81 0.0 0.0 0.00 0.71 0.05 95 1015.2
20260902204521 21 81 0.0 0.0 0.00 0.71 0.05 95 1015.3
20260902204500 21 81 0.0 0.0 0.00 0.71 0.05 95 1015.2
20260902204436 21 81 0.0 0.0 0.00 0.71 0.05 95 1015.2
20260902204336 21 82 0.0 0.0 0.00 0.71 0.05 95 1015.3
20260902204248 21 76 0.0 0.0 0.00 0.71 0.05 95 1015.3
20260902204244 21 89 0.0 0.0 0.00 0.71 0.05 95 1015.3
20260902204034 21 76 0.0 0.0 0.00 0.71 0.05 95 1015.4
20260902204020 21 76 0.0 0.0 0.00 0.71 0.05 95 1015.5
20260902203958 21 76 0.0 0.0 0.00 0.71 0.05 95 1015.4
20260902203934 21 76 0.0 0.0 0.00 0.71 0.05 95 1015.4
20260902203847 21 69 0.0 0.0 0.00 0.71 0.05 95 1015.5
20260902203843 21 76 0.0 0.0 0.00 0.71 0.05 95 1015.4
20260902203634 21 69 0.0 0.0 0.00 0.71 0.05 95 1015.5
20260902203605 21 69 0.0 0.0 0.00 0.71 0.05 95 1015.6
20260902203548 21 69 0.0 0.0 0.00 0.71 0.05 95 1015.5
20260902203538 21 69 0.0 0.0 0.00 0.71 0.05 95 1015.5
20260902203332 21 78 0.0 0.0 0.00 0.71 0.05 95 1015.6
20260902203232 21 67 0.0 0.0 0.00 0.71 0.05 95 1015.6
20260902203210 21 81 0.0 0.0 0.00 0.71 0.05 95 1015.5
20260902203132 21 62 0.0 0.0 0.00 0.71 0.05 95 1015.5
20260902203103 21 80 0.0 0.0 0.00 0.71 0.05 95 1015.5
20260902203020 21 80 0.0 0.0 0.00 0.71 0.05 95 1015.6
20260902202930 21 49 0.0 0.0 0.00 0.71 0.05 95 1015.5
20260902202830 21 49 0.0 0.0 0.00 0.71 0.05 95 1015.5
20260902202730 21 49 0.0 0.0 0.00 0.71 0.05 95 1015.4
20260902202628 21 47 0.0 0.0 0.00 0.71 0.05 95 1015.5
20260902202528 21 47 0.0 0.0 0.00 0.71 0.05 95 1015.5
20260902202521 21 47 0.0 0.0 0.00 0.71 0.05 95 1015.5
20260902202440 21 47 0.0 0.0 0.00 0.71 0.05 95 1015.5
20260902202436 21 47 0.0 0.0 0.00 0.71 0.05 95 1015.4
20260902202227 21 47 0.0 0.0 0.00 0.71 0.05 95 1015.5
20260902202126 21 47 0.0 0.0 0.00 0.71 0.05 95 1015.5
20260902202026 21 69 0.0 0.0 0.00 0.71 0.05 95 1015.5
20260902202020 21 69 0.0 0.0 0.00 0.71 0.05 95 1015.7
20260902201925 21 69 0.0 0.0 0.00 0.71 0.05 95 1015.6
20260902201825 21 69 0.0 0.0 0.00 0.71 0.05 95 1015.6
20260902201725 21 69 0.0 0.0 0.00 0.71 0.05 95 1015.6
20260902201624 21 61 0.0 0.0 0.00 0.71 0.05 95 1015.6
20260902201538 21 59 0.0 0.0 0.00 0.71 0.05 95 1015.6
20260902201530 21 67 0.0 0.0 0.00 0.71 0.05 95 1015.6
20260902201520 21 67 0.0 0.0 0.00 0.71 0.05 95 1015.7
20260902201322 21 67 0.0 0.0 0.00 0.71 0.05 95 1015.6
20260902201221 21 67 0.0 0.0 0.00 0.71 0.05 95 1015.6
20260902201153 21 66 0.0 0.0 0.00 0.71 0.05 95 1015.5
20260902201149 21 60 0.0 0.0 0.00 0.71 0.05 95 1015.4
20260902201144 21 66 0.0 0.0 0.00 0.71 0.05 95 1015.5
20260902201027 21 66 0.0 0.0 0.00 0.71 0.05 95 1015.4
20260902201020 21 66 0.0 0.0 0.00 0.71 0.05 95 1015.5
20260902200820 21 84 0.0 0.0 0.00 0.71 0.05 95 1015.4
20260902200801 21 110 0.0 0.0 0.00 0.71 0.05 95 1015.4
20260902200754 21 90 0.0 0.0 0.00 0.71 0.05 95 1015.4
20260902200641 21 57 0.0 0.0 0.00 0.71 0.05 95 1015.4
20260902200632 21 93 0.0 0.0 0.00 0.71 0.05 95 1015.4
20260902200520 21 110 0.0 0.0 0.00 0.71 0.05 95 1015.5
20260902200317 21 97 0.0 0.0 0.00 0.71 0.05 95 1015.4
20260902200217 21 82 0.0 0.0 0.00 0.71 0.05 95 1015.4
20260902200116 21 76 0.0 0.0 0.00 0.71 0.05 95 1015.5
20260902200035 21 78 0.0 0.0 0.00 0.71 0.05 95 1015.5
20260902200016 21 78 0.0 0.0 0.00 0.71 0.05 95 1015.5
20260902195946 21 78 0.0 0.0 0.00 0.71 0.05 95 1015.4
20260902195913 21 86 0.0 0.0 0.00 0.71 0.05 95 1015.4
20260902195814 21 119 0.0 0.0 0.00 0.71 0.05 95 1015.4
20260902195712 21 119 0.0 0.0 0.00 0.71 0.05 95 1015.4
20260902195612 21 119 0.0 0.0 0.00 0.71 0.05 95 1015.4
20260902195520 21 105 0.0 0.0 0.00 0.71 0.05 95 1015.5
20260902195512 21 105 0.0 0.0 0.00 0.71 0.05 95 1015.4
20260902195446 21 105 0.0 0.0 0.00 0.71 0.05 95 1015.4
20260902195439 21 105 0.0 0.0 0.00 0.71 0.05 95 1015.4
20260902195434 21 75 0.0 0.0 0.00 0.71 0.05 95 1015.3
20260902195429 21 105 0.0 0.0 0.00 0.71 0.05 95 1015.4
20260902195111 21 104 0.0 0.0 0.00 0.71 0.05 95 1015.3
20260902195020 21 104 0.0 0.0 0.00 0.71 0.05 95 1015.4
20260902195009 21 104 0.0 0.0 0.00 0.71 0.05 95 1015.2
20260902194944 21 104 0.0 0.0 0.00 0.71 0.05 95 1015.3
20260902194910 21 101 0.0 0.0 0.00 0.71 0.05 95 1015.3
20260902194810 21 84 0.0 0.0 0.00 0.71 0.05 95 1015.3
20260902194709 21 102 0.0 0.0 0.00 0.71 0.05 95 1015.4
20260902194609 21 65 0.0 0.0 0.00 0.71 0.05 95 1015.4
20260902194520 21 65 0.0 0.0 0.00 0.71 0.05 95 1015.5
20260902194508 21 65 0.0 0.0 0.00 0.71 0.05 95 1015.4
20260902194442 21 92 0.0 0.0 0.00 0.71 0.05 95 1015.4
20260902194421 21 104 0.0 0.0 0.00 0.71 0.05 95 1015.5
20260902194416 21 65 0.0 0.0 0.00 0.71 0.05 95 1015.4
20260902194207 21 113 0.0 0.0 0.00 0.71 0.05 95 1015.5
20260902194106 21 80 0.0 0.0 0.00 0.71 0.05 95 1015.5
20260902194020 21 66 0.0 0.0 0.00 0.71 0.05 95 1015.5
20260902194012 21 66 0.0 0.0 0.00 0.71 0.05 95 1015.5
20260902193818 21 78 0.0 0.0 0.00 0.71 0.05 95 1015.4
20260902193814 21 65 0.0 0.0 0.00 0.71 0.05 95 1015.4
20260902193603 21 80 0.0 0.0 0.00 0.71 0.05 95 1015.5
20260902193535 21 76 0.0 0.0 0.00 0.71 0.05 95 1015.5
20260902193530 21 83 0.0 0.0 0.00 0.71 0.05 95 1015.5
20260902193525 21 80 0.0 0.0 0.00 0.71 0.05 95 1015.5
20260902193520 21 80 0.0 0.0 0.00 0.71 0.05 95 1015.6
20260902193517 21 80 0.0 0.0 0.00 0.71 0.05 95 1015.5
20260902193201 21 77 0.0 0.0 0.00 0.71 0.05 95 1015.5
20260902193101 21 69 0.0 0.0 0.00 0.71 0.05 95 1015.5
20260902193035 21 111 0.0 0.0 0.00 0.71 0.05 95 1015.6
20260902193000 21 92 0.0 0.0 0.00 0.71 0.05 95 1015.5
20260902192940 21 65 0.0 0.0 0.00 0.71 0.05 95 1015.5
20260902192900 21 64 0.0 0.0 0.00 0.71 0.05 95 1015.5
20260902192800 21 64 0.0 0.0 0.00 0.71 0.05 95 1015.5
20260902192658 21 49 0.0 0.0 0.00 0.71 0.05 95 1015.6
20260902192558 21 82 0.0 0.0 0.00 0.71 0.05 95 1015.5
20260902192520 21 115 0.0 0.0 0.00 0.71 0.05 95 1015.7
20260902192457 21 114 0.0 0.0 0.00 0.71 0.05 95 1015.6
20260902192440 21 105 0.0 0.0 0.00 0.71 0.05 95 1015.6
20260902192357 21 80 0.0 0.0 0.00 0.71 0.05 95 1015.5
20260902192257 21 83 0.0 0.0 0.00 0.71 0.05 95 1015.6
20260902192208 21 76 0.0 0.0 0.00 0.71 0.05 95 1015.6
20260902192204 21 88 0.0 0.0 0.00 0.71 0.05 95 1015.6
20260902192020 21 62 0.0 0.0 0.00 0.71 0.05 95 1015.7
20260902191956 21 62 0.0 0.0 0.00 0.71 0.05 95 1015.6
20260902191939 21 98 0.0 0.0 0.00 0.71 0.05 95 1015.6
20260902191855 21 107 0.0 0.0 0.00 0.71 0.05 95 1015.6
20260902191755 21 107 0.0 0.0 0.00 0.71 0.05 95 1015.6
20260902191653 21 97 0.0 0.0 0.00 0.71 0.05 95 1015.6
20260902191553 21 85 0.0 0.0 0.00 0.71 0.05 95 1015.6
20260902191520 21 75 0.0 0.0 0.00 0.71 0.05 95 1015.8
20260902191453 21 71 0.0 0.0 0.00 0.71 0.05 95 1015.7
20260902191439 21 98 0.0 0.0 0.00 0.71 0.05 95 1015.7
20260902191414 21 101 0.0 0.0 0.00 0.71 0.05 95 1015.6
20260902191300 21 85 0.0 0.0 0.00 0.71 0.05 95 1015.7
20260902191049 21 71 0.0 0.0 0.00 0.71 0.05 95 1015.6
20260902191020 21 60 0.0 0.0 0.00 0.71 0.05 95 1015.7
20260902190939 21 60 0.0 0.0 0.00 0.71 0.05 95 1015.6
20260902190902 21 81 0.0 0.0 0.00 0.71 0.05 95 1015.8
20260902190857 21 94 0.0 0.0 0.00 0.71 0.05 95 1015.7
20260902190648 21 87 0.0 0.0 0.00 0.71 0.05 95 1015.8
20260902190548 21 87 0.0 0.0 0.00 0.71 0.05 95 1015.9
20260902190520 21 87 0.0 0.0 0.00 0.71 0.05 95 1016.0
20260902190438 21 87 0.0 0.0 0.00 0.71 0.05 95 1015.9
20260902190347 21 82 0.0 0.0 0.00 0.71 0.05 95 1015.9
20260902190259 21 83 0.0 0.0 0.00 0.71 0.05 95 1015.9
20260902190255 21 74 0.0 0.0 0.00 0.71 0.05 95 1015.9
20260902190100 21 102 0.0 0.0 0.00 0.71 0.05 95 1015.9
20260902190055 21 102 0.0 0.0 0.00 0.71 0.05 95 1015.8
20260902190020 21 102 0.0 0.0 0.00 0.71 0.05 95 1016.0
20260902185939 21 102 0.0 0.0 0.00 0.71 0.05 95 1015.9
20260902185900 21 102 0.0 0.0 0.00 0.71 0.05 95 1016.0
20260902185855 21 102 0.0 0.0 0.00 0.71 0.05 95 1015.9
20260902185646 21 102 0.0 0.0 0.00 0.71 0.05 95 1016.0
20260902185558 21 103 0.0 0.0 0.00 0.71 0.05 95 1016.2
20260902185554 21 102 0.0 0.0 0.00 0.71 0.05 95 1016.1
20260902185520 21 102 0.0 0.0 0.00 0.71 0.05 95 1016.3
20260902185438 21 103 0.0 0.0 0.00 0.71 0.05 95 1016.2
20260902185344 21 103 0.0 0.0 0.00 0.71 0.05 95 1016.3
20260902185311 21 108 0.0 0.0 0.00 0.71 0.05 95 1016.3
20260902185307 21 108 0.0 0.0 0.00 0.71 0.05 95 1016.4
20260902185301 21 108 0.0 0.0 0.00 0.71 0.05 95 1016.3
20260902185035 21 108 0.0 0.0 0.00 0.71 0.05 95 1016.5
20260902184938 21 108 0.0 0.0 0.00 0.71 0.05 95 1016.4
20260902184842 21 108 0.0 0.0 0.00 0.71 0.05 95 1016.3
20260902184740 21 108 0.0 0.0 0.00 0.71 0.05 95 1016.3
20260902184726 21 108 0.0 0.0 0.00 0.71 0.05 95 1016.3
20260902184722 21 108 0.0 0.0 0.00 0.71 0.05 95 1016.3
20260902184718 21 108 0.0 0.0 0.00 0.71 0.05 95 1016.3
20260902184713 21 108 0.0 0.0 0.00 0.71 0.05 95 1016.3
20260902184520 21 108 0.0 0.0 0.00 0.71 0.05 95 1016.4
20260902184447 21 108 0.0 0.0 0.00 0.71 0.05 95 1016.3
20260902184239 21 108 0.0 0.0 0.00 0.71 0.05 95 1016.3
20260902184139 21 108 0.0 0.0 0.00 0.71 0.05 95 1016.3
20260902184037 21 108 0.0 0.0 0.00 0.71 0.05 95 1016.4
20260902184021 21 108 0.0 0.0 0.00 0.71 0.05 95 1016.5
20260902183956 21 84 0.0 0.0 0.00 0.71 0.05 95 1016.4
20260902183947 21 108 0.0 0.0 0.00 0.71 0.05 95 1016.4
20260902183749 21 83 0.0 0.0 0.00 0.71 0.05 94 1016.4
20260902183745 21 84 0.0 0.0 0.00 0.71 0.05 94 1016.4
20260902183535 21 92 0.0 0.0 0.03 0.71 0.05 94 1016.6
20260902183433 21 92 0.0 0.0 0.03 0.71 0.05 94 1016.5
20260902183333 21 92 0.0 0.0 0.03 0.71 0.05 94 1016.4
20260902183233 21 92 0.0 0.0 0.03 0.71 0.05 94 1016.4
20260902183133 21 92 0.0 0.0 0.03 0.71 0.05 94 1016.5
20260902183031 21 92 0.0 0.0 0.03 0.71 0.05 94 1016.5
20260902183020 21 92 0.0 0.0 0.03 0.71 0.05 94 1016.6
20260902182932 21 92 0.0 0.0 0.03 0.71 0.05 94 1016.5
20260902182830 21 92 0.0 0.0 0.03 0.71 0.05 94 1016.4
20260902182742 21 97 0.0 0.0 0.03 0.71 0.05 94 1016.5
20260902182738 21 97 0.0 0.0 0.03 0.71 0.05 94 1016.5
20260902182528 21 97 0.0 0.0 0.03 0.71 0.05 94 1016.5
20260902182521 21 97 0.0 0.0 0.03 0.71 0.05 94 1016.6
20260902182428 21 97 0.0 0.0 0.03 0.71 0.05 94 1016.5
20260902182327 21 97 0.0 0.0 0.03 0.71 0.05 94 1016.5
20260902182226 21 97 0.0 0.0 0.03 0.71 0.05 94 1016.5
20260902182126 21 97 0.0 0.0 0.03 0.71 0.05 94 1016.5
20260902182026 21 97 0.0 0.0 0.03 0.71 0.05 94 1016.6
20260902182020 21 97 0.0 0.0 0.03 0.71 0.05 94 1016.7
20260902181925 21 97 0.0 0.0 0.03 0.71 0.05 94 1016.6
20260902181839 21 97 0.0 0.0 0.03 0.71 0.05 94 1016.7
20260902181834 21 97 0.0 0.0 0.03 0.71 0.05 94 1016.6
20260902181625 21 97 0.0 0.0 0.03 0.71 0.05 94 1016.7
20260902181539 21 97 0.0 0.0 0.03 0.71 0.05 94 1016.8
20260902181530 21 97 0.0 0.0 0.03 0.71 0.05 94 1016.8
20260902181520 21 97 0.0 0.0 0.03 0.71 0.05 94 1016.9
20260902181337 21 97 0.0 0.0 0.03 0.71 0.05 94 1016.8
20260902181333 21 97 0.0 0.0 0.03 0.71 0.05 94 1016.8
20260902181122 21 97 0.0 0.0 0.03 0.71 0.05 94 1016.8
20260902181050 21 97 0.0 0.0 0.03 0.71 0.05 94 1016.9
20260902181036 21 97 0.0 0.0 0.03 0.71 0.05 94 1016.8
20260902181027 21 97 0.0 0.0 0.03 0.71 0.05 94 1016.8
20260902180822 21 97 0.0 0.0 0.03 0.71 0.05 94 1016.8
20260902180748 21 97 0.0 0.0 0.03 0.71 0.05 94 1016.8
20260902180744 21 97 0.0 0.0 0.03 0.71 0.05 94 1016.8
20260902180738 21 97 0.0 0.0 0.03 0.71 0.05 94 1016.8
20260902180520 21 97 0.0 0.0 0.03 0.71 0.05 94 1017.0
20260902180419 21 97 0.0 0.0 0.03 0.71 0.05 94 1016.9
20260902180319 21 97 0.0 0.0 0.03 0.71 0.05 94 1016.9
20260902180220 21 97 0.0 0.0 0.03 0.71 0.05 94 1016.9
20260902180119 21 97 0.0 0.0 0.03 0.71 0.05 94 1017.0
20260902180020 21 97 0.0 0.0 0.03 0.71 0.05 94 1017.0
20260902175918 21 97 0.0 0.0 0.03 0.71 0.05 94 1016.9
20260902175816 21 97 0.0 0.0 0.03 0.71 0.05 94 1016.9
20260902175716 21 97 0.0 0.0 0.03 0.71 0.05 94 1017.0
20260902175616 21 97 0.0 3.2 0.03 0.71 0.05 94 1017.0
20260902175520 21 97 0.0 3.2 0.03 0.71 0.05 94 1017.0
20260902175515 21 97 0.0 3.2 0.03 0.71 0.05 94 1016.9
20260902175415 21 97 0.0 3.2 0.03 0.71 0.05 94 1016.9
20260902175315 21 97 0.0 3.2 0.03 0.71 0.05 94 1016.8
20260902175213 21 97 0.0 3.2 0.03 0.71 0.05 94 1016.8
20260902175113 21 97 0.0 3.2 0.03 0.71 0.05 93 1016.8
20260902175020 21 97 0.0 3.2 0.03 0.71 0.05 93 1016.8
20260902175012 21 97 0.0 3.2 0.03 0.71 0.05 93 1016.8
20260902174927 21 97 0.0 4.8 0.03 0.71 0.05 93 1016.7
20260902174912 21 97 0.0 6.4 0.03 0.71 0.05 93 1016.7
20260902174812 21 97 0.0 6.4 0.03 0.71 0.05 93 1016.7